Time,TemperatureF,DewpointF,PressureIn,WindDirection,WindDirectionDegrees,WindSpeedMPH,WindSpeedGustMPH,Humidity,HourlyPrecipIn,Conditions,Clouds,dailyrainin,SoftwareType,DateUTC
2013-07-08 00:02:00,78.1,72.5,29.86,SE,141,3.0,3.0,83,0.00,,,0.00,Wunderground v.1.15,2013-07-08 05:02:00,
2013-07-08 00:03:00,78.1,72.5,29.86,SE,126,3.0,3.0,83,0.00,,,0.00,Wunderground v.1.15,2013-07-08 05:03:00,
2013-07-08 00:04:00,78.1,72.2,29.86,SSE,148,3.0,3.0,82,0.00,,,0.00,Wunderground v.1.15,2013-07-08 05:04:00,
2013-07-08 00:06:00,78.1,72.2,29.86,SE,131,3.0,5.0,82,0.00,,,0.00,Wunderground v.1.15,2013-07-08 05:06:00,
2013-07-08 00:08:00,78.1,72.2,29.86,SE,130,3.0,5.0,82,0.00,,,0.00,Wunderground v.1.15,2013-07-08 05:08:00,
2013-07-08 00:09:00,78.1,72.2,29.86,SE,131,3.0,5.0,82,0.00,,,0.00,Wunderground v.1.15,2013-07-08 05:09:00,
2013-07-08 00:11:00,78.1,72.2,29.86,SE,131,3.0,4.0,82,0.00,,,0.00,Wunderground v.1.15,2013-07-08 05:11:00,
2013-07-08 00:15:00,78.1,72.2,29.86,SE,136,3.0,7.0,82,0.00,,,0.00,Wunderground v.1.15,2013-07-08 05:15:00,
2013-07-08 00:16:00,78.1,72.2,29.86,SE,136,2.0,7.0,82,0.00,,,0.00,Wunderground v.1.15,2013-07-08 05:16:00,
2013-07-08 00:18:00,78.1,72.2,29.86,SE,137,2.0,7.0,82,0.00,,,0.00,Wunderground v.1.15,2013-07-08 05:18:00,
2013-07-08 00:21:00,78.1,72.2,29.86,SSE,161,2.0,5.0,82,0.00,,,0.00,Wunderground v.1.15,2013-07-08 05:21:00,
2013-07-08 00:25:00,78.1,72.2,29.86,SSE,158,2.0,5.0,82,0.00,,,0.00,Wunderground v.1.15,2013-07-08 05:25:00,
2013-07-08 00:26:00,78.1,72.2,29.86,SSE,147,2.0,5.0,82,0.00,,,0.00,Wunderground v.1.15,2013-07-08 05:26:00,
2013-07-08 00:27:00,78.1,72.2,29.86,SSE,148,2.0,5.0,82,0.00,,,0.00,Wunderground v.1.15,2013-07-08 05:27:00,
2013-07-08 00:29:00,78.1,71.8,29.86,SSE,154,2.0,5.0,81,0.00,,,0.00,Wunderground v.1.15,2013-07-08 05:29:00,
2013-07-08 00:31:00,78.1,71.8,29.86,SSE,155,2.0,2.0,81,0.00,,,0.00,Wunderground v.1.15,2013-07-08 05:31:00,
2013-07-08 00:34:00,78.1,71.8,29.86,SE,144,2.0,2.0,81,0.00,,,0.00,Wunderground v.1.15,2013-07-08 05:34:00,
2013-07-08 00:35:00,78.1,71.8,29.86,SSE,147,1.0,2.0,81,0.00,,,0.00,Wunderground v.1.15,2013-07-08 05:35:00,
2013-07-08 00:38:00,78.1,71.8,29.86,SSE,147,1.0,2.0,81,0.00,,,0.00,Wunderground v.1.15,2013-07-08 05:38:00,
2013-07-08 00:41:00,78.1,71.8,29.86,SSE,147,1.0,1.0,81,0.00,,,0.00,Wunderground v.1.15,2013-07-08 05:41:00,
2013-07-08 00:43:00,78.1,71.8,29.86,SSE,147,0.0,1.0,81,0.00,,,0.00,Wunderground v.1.15,2013-07-08 05:43:00,
2013-07-08 00:46:00,78.1,71.8,29.86,SE,141,1.0,7.0,81,0.00,,,0.00,Wunderground v.1.15,2013-07-08 05:46:00,
2013-07-08 00:48:00,78.1,71.8,29.86,SE,141,2.0,7.0,81,0.00,,,0.00,Wunderground v.1.15,2013-07-08 05:48:00,
2013-07-08 00:49:00,78.1,71.8,29.86,SE,141,2.0,7.0,81,0.00,,,0.00,Wunderground v.1.15,2013-07-08 05:49:00,
2013-07-08 00:52:00,78.1,71.8,29.86,ESE,112,2.0,7.0,81,0.00,,,0.00,Wunderground v.1.15,2013-07-08 05:52:00,
2013-07-08 00:53:00,78.1,71.8,29.86,ESE,123,2.0,7.0,81,0.00,,,0.00,Wunderground v.1.15,2013-07-08 05:53:00,
2013-07-08 00:55:00,77.9,71.6,29.86,ESE,123,2.0,7.0,81,0.00,,,0.00,Wunderground v.1.15,2013-07-08 05:55:00,
2013-07-08 00:57:00,77.9,71.6,29.86,SSE,152,2.0,7.0,81,0.00,,,0.00,Wunderground v.1.15,2013-07-08 05:57:00,
2013-07-08 00:59:00,77.9,71.6,29.86,SE,141,3.0,7.0,81,0.00,,,0.00,Wunderground v.1.15,2013-07-08 05:59:00,
2013-07-08 01:01:00,77.9,71.6,29.86,SSE,152,3.0,3.0,81,0.00,,,0.00,Wunderground v.1.15,2013-07-08 06:01:00,
2013-07-08 01:02:00,77.9,71.6,29.86,SSE,152,3.0,3.0,81,0.00,,,0.00,Wunderground v.1.15,2013-07-08 06:02:00,
2013-07-08 01:04:00,77.9,71.6,29.86,SSE,152,2.0,3.0,81,0.00,,,0.00,Wunderground v.1.15,2013-07-08 06:04:00,
2013-07-08 01:07:00,77.9,71.6,29.86,SSE,151,2.0,3.0,81,0.00,,,0.00,Wunderground v.1.15,2013-07-08 06:07:00,
2013-07-08 01:10:00,77.9,72.0,29.86,SE,137,2.0,5.0,82,0.00,,,0.00,Wunderground v.1.15,2013-07-08 06:10:00,
2013-07-08 01:12:00,77.9,72.0,29.86,SE,141,2.0,2.0,82,0.00,,,0.00,Wunderground v.1.15,2013-07-08 06:12:00,
2013-07-08 01:13:00,77.9,72.0,29.86,SE,141,2.0,2.0,82,0.00,,,0.00,Wunderground v.1.15,2013-07-08 06:13:00,
2013-07-08 01:17:00,77.7,71.8,29.86,SE,141,2.0,3.0,82,0.00,,,0.00,Wunderground v.1.15,2013-07-08 06:17:00,
2013-07-08 01:21:00,77.7,71.8,29.86,SSE,160,1.0,5.0,82,0.00,,,0.00,Wunderground v.1.15,2013-07-08 06:21:00,
2013-07-08 01:22:00,77.7,71.8,29.86,SSE,160,1.0,2.0,82,0.00,,,0.00,Wunderground v.1.15,2013-07-08 06:22:00,
2013-07-08 01:23:00,77.7,72.1,29.86,SSE,160,2.0,2.0,83,0.00,,,0.00,Wunderground v.1.15,2013-07-08 06:23:00,
2013-07-08 01:27:00,77.7,72.1,29.86,SSE,150,1.0,5.0,83,0.00,,,0.00,Wunderground v.1.15,2013-07-08 06:27:00,
2013-07-08 01:28:00,77.6,72.0,29.86,SSE,150,1.0,5.0,83,0.00,,,0.00,Wunderground v.1.15,2013-07-08 06:28:00,
2013-07-08 01:30:00,77.6,72.0,29.86,SSE,150,1.0,5.0,83,0.00,,,0.00,Wunderground v.1.15,2013-07-08 06:30:00,
2013-07-08 01:32:00,77.6,72.0,29.86,SSE,150,1.0,5.0,83,0.00,,,0.00,Wunderground v.1.15,2013-07-08 06:32:00,
2013-07-08 01:35:00,77.6,72.0,29.86,SSE,154,1.0,5.0,83,0.00,,,0.00,Wunderground v.1.15,2013-07-08 06:35:00,
2013-07-08 01:36:00,77.6,72.0,29.86,SE,140,1.0,5.0,83,0.00,,,0.00,Wunderground v.1.15,2013-07-08 06:36:00,
2013-07-08 01:37:00,77.6,72.4,29.86,SE,131,2.0,5.0,84,0.00,,,0.00,Wunderground v.1.15,2013-07-08 06:37:00,
2013-07-08 01:40:00,77.4,72.2,29.86,SE,128,3.0,5.0,84,0.00,,,0.00,Wunderground v.1.15,2013-07-08 06:40:00,
2013-07-08 01:41:00,77.4,72.2,29.86,SSE,158,3.0,5.0,84,0.00,,,0.00,Wunderground v.1.15,2013-07-08 06:41:00,
2013-07-08 01:42:00,77.4,72.2,29.86,SSE,158,3.0,3.0,84,0.00,,,0.00,Wunderground v.1.15,2013-07-08 06:42:00,
2013-07-08 01:45:00,77.4,72.2,29.86,SSE,147,3.0,6.0,84,0.00,,,0.00,Wunderground v.1.15,2013-07-08 06:45:00,
2013-07-08 01:47:00,77.2,72.3,29.86,SSE,154,3.0,6.0,85,0.00,,,0.00,Wunderground v.1.15,2013-07-08 06:47:00,
2013-07-08 01:50:00,77.2,72.3,29.86,SE,143,2.0,6.0,85,0.00,,,0.00,Wunderground v.1.15,2013-07-08 06:50:00,
2013-07-08 01:51:00,77.2,72.3,29.86,ESE,123,2.0,6.0,85,0.00,,,0.00,Wunderground v.1.15,2013-07-08 06:51:00,
2013-07-08 01:53:00,77.2,72.3,29.86,SE,124,2.0,5.0,85,0.00,,,0.00,Wunderground v.1.15,2013-07-08 06:53:00,
2013-07-08 01:55:00,77.2,72.3,29.86,SE,126,2.0,5.0,85,0.00,,,0.00,Wunderground v.1.15,2013-07-08 06:55:00,
2013-07-08 01:56:00,77.0,72.5,29.86,SE,127,2.0,5.0,86,0.00,,,0.00,Wunderground v.1.15,2013-07-08 06:56:00,
2013-07-08 01:58:00,77.0,72.5,29.86,SE,127,2.0,5.0,86,0.00,,,0.00,Wunderground v.1.15,2013-07-08 06:58:00,
2013-07-08 01:59:00,77.0,72.5,29.86,SE,127,2.0,5.0,86,0.00,,,0.00,Wunderground v.1.15,2013-07-08 06:59:00,
2013-07-08 02:00:00,77.0,72.5,29.86,SE,127,2.0,5.0,86,0.00,,,0.00,Wunderground v.1.15,2013-07-08 07:00:00,
2013-07-08 02:03:00,76.8,72.3,29.86,SE,130,2.0,2.0,86,0.00,,,0.00,Wunderground v.1.15,2013-07-08 07:03:00,
2013-07-08 02:04:00,76.8,72.3,29.86,SE,130,2.0,2.0,86,0.00,,,0.00,Wunderground v.1.15,2013-07-08 07:04:00,
2013-07-08 02:05:00,76.8,72.3,29.86,SE,130,2.0,2.0,86,0.00,,,0.00,Wunderground v.1.15,2013-07-08 07:05:00,
2013-07-08 02:08:00,76.7,72.2,29.86,SE,130,2.0,2.0,86,0.00,,,0.00,Wunderground v.1.15,2013-07-08 07:08:00,
2013-07-08 02:10:00,76.7,72.2,29.86,SE,134,2.0,5.0,86,0.00,,,0.00,Wunderground v.1.15,2013-07-08 07:10:00,
2013-07-08 02:13:00,76.5,72.3,29.86,ESE,114,2.0,5.0,87,0.00,,,0.00,Wunderground v.1.15,2013-07-08 07:13:00,
2013-07-08 02:15:00,76.5,72.3,29.86,SSE,150,2.0,6.0,87,0.00,,,0.00,Wunderground v.1.15,2013-07-08 07:15:00,
2013-07-08 02:16:00,76.5,72.3,29.86,SE,137,2.0,6.0,87,0.00,,,0.00,Wunderground v.1.15,2013-07-08 07:16:00,
2013-07-08 02:19:00,76.5,72.3,29.85,SSE,157,2.0,6.0,87,0.00,,,0.00,Wunderground v.1.15,2013-07-08 07:19:00,
2013-07-08 02:20:00,76.5,72.3,29.85,SSE,165,3.0,6.0,87,0.00,,,0.00,Wunderground v.1.15,2013-07-08 07:20:00,
2013-07-08 02:21:00,76.3,72.1,29.85,SSE,165,2.0,2.0,87,0.00,,,0.00,Wunderground v.1.15,2013-07-08 07:21:00,
2013-07-08 02:24:00,76.3,72.1,29.85,SE,130,3.0,7.0,87,0.00,,,0.00,Wunderground v.1.15,2013-07-08 07:24:00,
2013-07-08 02:27:00,76.3,72.1,29.85,SE,133,2.0,7.0,87,0.00,,,0.00,Wunderground v.1.15,2013-07-08 07:27:00,
2013-07-08 02:28:00,76.3,72.1,29.85,SE,133,2.0,7.0,87,0.00,,,0.00,Wunderground v.1.15,2013-07-08 07:28:00,
2013-07-08 02:31:00,76.3,72.5,29.85,SE,134,2.0,2.0,88,0.00,,,0.00,Wunderground v.1.15,2013-07-08 07:31:00,
2013-07-08 02:33:00,76.1,72.3,29.85,SE,136,2.0,2.0,88,0.00,,,0.00,Wunderground v.1.15,2013-07-08 07:33:00,
2013-07-08 02:34:00,76.1,72.3,29.85,SE,136,2.0,2.0,88,0.00,,,0.00,Wunderground v.1.15,2013-07-08 07:34:00,
2013-07-08 02:35:00,76.1,72.3,29.85,SE,136,2.0,2.0,88,0.00,,,0.00,Wunderground v.1.15,2013-07-08 07:35:00,
2013-07-08 02:36:00,76.1,72.3,29.85,SE,141,2.0,3.0,88,0.00,,,0.00,Wunderground v.1.15,2013-07-08 07:36:00,
2013-07-08 02:39:00,76.1,72.3,29.85,SE,144,2.0,3.0,88,0.00,,,0.00,Wunderground v.1.15,2013-07-08 07:39:00,
2013-07-08 02:40:00,76.1,72.3,29.85,SE,144,2.0,3.0,88,0.00,,,0.00,Wunderground v.1.15,2013-07-08 07:40:00,
2013-07-08 02:41:00,76.1,72.3,29.85,SSE,148,2.0,3.0,88,0.00,,,0.00,Wunderground v.1.15,2013-07-08 07:41:00,
2013-07-08 02:43:00,76.1,72.3,29.85,South,174,2.0,7.0,88,0.00,,,0.00,Wunderground v.1.15,2013-07-08 07:43:00,
2013-07-08 02:47:00,76.0,72.2,29.85,SSE,147,3.0,7.0,88,0.00,,,0.00,Wunderground v.1.15,2013-07-08 07:47:00,
2013-07-08 02:48:00,76.0,72.2,29.85,SE,137,3.0,7.0,88,0.00,,,0.00,Wunderground v.1.15,2013-07-08 07:48:00,
2013-07-08 02:49:00,76.0,72.2,29.85,SSE,154,3.0,7.0,88,0.00,,,0.00,Wunderground v.1.15,2013-07-08 07:49:00,
2013-07-08 02:52:00,75.8,72.0,29.85,SE,138,4.0,4.0,88,0.00,,,0.00,Wunderground v.1.15,2013-07-08 07:52:00,
2013-07-08 02:54:00,75.8,72.0,29.85,SE,137,4.0,7.0,88,0.00,,,0.00,Wunderground v.1.15,2013-07-08 07:54:00,
2013-07-08 02:55:00,75.8,72.0,29.85,South,171,4.0,7.0,88,0.00,,,0.00,Wunderground v.1.15,2013-07-08 07:55:00,
2013-07-08 02:56:00,75.8,72.0,29.85,SE,137,4.0,7.0,88,0.00,,,0.00,Wunderground v.1.15,2013-07-08 07:56:00,
2013-07-08 02:57:00,75.8,72.0,29.85,SE,145,4.0,7.0,88,0.00,,,0.00,Wunderground v.1.15,2013-07-08 07:57:00,
2013-07-08 02:58:00,75.8,72.0,29.85,SE,138,4.0,7.0,88,0.00,,,0.00,Wunderground v.1.15,2013-07-08 07:58:00,
2013-07-08 02:59:00,75.8,72.0,29.85,SE,134,4.0,7.0,88,0.00,,,0.00,Wunderground v.1.15,2013-07-08 07:59:00,
2013-07-08 03:00:00,75.8,72.0,29.85,SSE,157,4.0,7.0,88,0.00,,,0.00,Wunderground v.1.15,2013-07-08 08:00:00,
2013-07-08 03:04:00,75.6,71.8,29.86,ESE,121,4.0,4.0,88,0.00,,,0.00,Wunderground v.1.15,2013-07-08 08:04:00,
2013-07-08 03:05:00,75.6,71.8,29.86,SE,145,4.0,6.0,88,0.00,,,0.00,Wunderground v.1.15,2013-07-08 08:05:00,
2013-07-08 03:06:00,75.6,71.8,29.86,South,174,4.0,6.0,88,0.00,,,0.00,Wunderground v.1.15,2013-07-08 08:06:00,
2013-07-08 03:07:00,75.6,71.8,29.86,SSE,165,4.0,6.0,88,0.00,,,0.00,Wunderground v.1.15,2013-07-08 08:07:00,
2013-07-08 03:12:00,75.6,71.8,29.86,SE,140,4.0,7.0,88,0.00,,,0.00,Wunderground v.1.15,2013-07-08 08:12:00,
2013-07-08 03:13:00,75.6,72.1,29.86,South,172,4.0,7.0,89,0.00,,,0.00,Wunderground v.1.15,2013-07-08 08:13:00,
2013-07-08 03:15:00,75.6,72.1,29.86,SSE,150,4.0,7.0,89,0.00,,,0.00,Wunderground v.1.15,2013-07-08 08:15:00,
2013-07-08 03:16:00,75.6,72.1,29.86,SE,141,4.0,7.0,89,0.00,,,0.00,Wunderground v.1.15,2013-07-08 08:16:00,
2013-07-08 03:19:00,75.6,72.1,29.87,SE,131,3.0,7.0,89,0.00,,,0.00,Wunderground v.1.15,2013-07-08 08:19:00,
2013-07-08 03:20:00,75.6,72.1,29.87,SE,137,4.0,7.0,89,0.00,,,0.00,Wunderground v.1.15,2013-07-08 08:20:00,
2013-07-08 03:21:00,75.4,71.9,29.87,South,176,3.0,6.0,89,0.00,,,0.00,Wunderground v.1.15,2013-07-08 08:21:00,
2013-07-08 03:24:00,75.4,71.9,29.87,SSE,155,3.0,6.0,89,0.00,,,0.00,Wunderground v.1.15,2013-07-08 08:24:00,
2013-07-08 03:26:00,75.6,72.1,29.87,SSE,154,2.0,6.0,89,0.00,,,0.00,Wunderground v.1.15,2013-07-08 08:26:00,
2013-07-08 03:27:00,75.6,72.1,29.87,SSE,150,2.0,6.0,89,0.00,,,0.00,Wunderground v.1.15,2013-07-08 08:27:00,
2013-07-08 03:28:00,75.4,71.9,29.87,SE,138,2.0,6.0,89,0.00,,,0.00,Wunderground v.1.15,2013-07-08 08:28:00,
2013-07-08 03:29:00,75.4,71.9,29.87,SE,138,3.0,6.0,89,0.00,,,0.00,Wunderground v.1.15,2013-07-08 08:29:00,
2013-07-08 03:32:00,75.6,72.1,29.87,SE,140,2.0,5.0,89,0.00,,,0.00,Wunderground v.1.15,2013-07-08 08:32:00,
2013-07-08 03:34:00,75.4,71.9,29.87,SE,141,2.0,5.0,89,0.00,,,0.00,Wunderground v.1.15,2013-07-08 08:34:00,
2013-07-08 03:35:00,75.4,71.9,29.87,SSW,206,2.0,5.0,89,0.00,,,0.00,Wunderground v.1.15,2013-07-08 08:35:00,
2013-07-08 03:37:00,75.4,71.9,29.87,SSW,198,2.0,5.0,89,0.00,,,0.00,Wunderground v.1.15,2013-07-08 08:37:00,
2013-07-08 03:42:00,75.4,71.9,29.87,SSE,162,2.0,2.0,89,0.00,,,0.00,Wunderground v.1.15,2013-07-08 08:42:00,
2013-07-08 03:43:00,75.4,71.9,29.87,SSE,148,2.0,7.0,89,0.00,,,0.00,Wunderground v.1.15,2013-07-08 08:43:00,
2013-07-08 03:44:00,75.4,71.6,29.87,SSE,152,2.0,7.0,88,0.00,,,0.00,Wunderground v.1.15,2013-07-08 08:44:00,
2013-07-08 03:47:00,75.4,71.9,29.88,SSE,161,3.0,7.0,89,0.00,,,0.00,Wunderground v.1.15,2013-07-08 08:47:00,
2013-07-08 03:48:00,75.4,71.6,29.88,South,175,3.0,7.0,88,0.00,,,0.00,Wunderground v.1.15,2013-07-08 08:48:00,
2013-07-08 03:50:00,75.4,71.6,29.88,SSE,150,3.0,7.0,88,0.00,,,0.00,Wunderground v.1.15,2013-07-08 08:50:00,
2013-07-08 03:52:00,75.4,71.6,29.88,SE,130,3.0,5.0,88,0.00,,,0.00,Wunderground v.1.15,2013-07-08 08:52:00,
2013-07-08 03:55:00,75.4,71.6,29.88,SE,141,4.0,7.0,88,0.00,,,0.00,Wunderground v.1.15,2013-07-08 08:55:00,
2013-07-08 03:56:00,75.4,71.6,29.88,SE,143,4.0,7.0,88,0.00,,,0.00,Wunderground v.1.15,2013-07-08 08:56:00,
2013-07-08 03:58:00,75.4,71.9,29.88,SSE,148,4.0,7.0,89,0.00,,,0.00,Wunderground v.1.15,2013-07-08 08:58:00,
2013-07-08 04:00:00,75.4,71.9,29.88,SSE,155,3.0,7.0,89,0.00,,,0.00,Wunderground v.1.15,2013-07-08 09:00:00,
2013-07-08 04:02:00,75.4,71.6,29.89,South,172,3.0,5.0,88,0.00,,,0.00,Wunderground v.1.15,2013-07-08 09:02:00,
2013-07-08 04:04:00,75.4,71.6,29.89,SSE,151,3.0,5.0,88,0.00,,,0.00,Wunderground v.1.15,2013-07-08 09:04:00,
2013-07-08 04:08:00,75.3,71.5,29.89,SSE,151,3.0,8.0,88,0.00,,,0.00,Wunderground v.1.15,2013-07-08 09:08:00,
2013-07-08 04:09:00,75.3,71.8,29.89,SSE,154,4.0,8.0,89,0.00,,,0.00,Wunderground v.1.15,2013-07-08 09:09:00,
2013-07-08 04:10:00,75.4,71.9,29.89,South,184,4.0,8.0,89,0.00,,,0.00,Wunderground v.1.15,2013-07-08 09:10:00,
2013-07-08 04:12:00,75.4,71.9,29.89,South,171,4.0,4.0,89,0.00,,,0.00,Wunderground v.1.15,2013-07-08 09:12:00,
2013-07-08 04:15:00,75.4,71.9,29.89,SSE,168,3.0,6.0,89,0.00,,,0.00,Wunderground v.1.15,2013-07-08 09:15:00,
2013-07-08 04:16:00,75.4,71.9,29.89,SSE,168,3.0,6.0,89,0.00,,,0.00,Wunderground v.1.15,2013-07-08 09:16:00,
2013-07-08 04:18:00,75.4,71.6,29.89,SE,143,3.0,7.0,88,0.00,,,0.00,Wunderground v.1.15,2013-07-08 09:18:00,
2013-07-08 04:19:00,75.4,71.9,29.89,ESE,114,3.0,7.0,89,0.00,,,0.00,Wunderground v.1.15,2013-07-08 09:19:00,
2013-07-08 04:20:00,75.3,71.8,29.89,ESE,116,3.0,7.0,89,0.00,,,0.00,Wunderground v.1.15,2013-07-08 09:20:00,
2013-07-08 04:22:00,75.3,71.5,29.89,SSE,161,2.0,3.0,88,0.00,,,0.00,Wunderground v.1.15,2013-07-08 09:22:00,
2013-07-08 04:23:00,75.3,71.5,29.89,SSE,161,2.0,3.0,88,0.00,,,0.00,Wunderground v.1.15,2013-07-08 09:23:00,
2013-07-08 04:25:00,75.3,71.5,29.89,SSE,162,2.0,5.0,88,0.00,,,0.00,Wunderground v.1.15,2013-07-08 09:25:00,
2013-07-08 04:27:00,75.3,71.5,29.89,SSE,162,3.0,5.0,88,0.00,,,0.00,Wunderground v.1.15,2013-07-08 09:27:00,
2013-07-08 04:29:00,75.3,71.5,29.89,SE,145,2.0,5.0,88,0.00,,,0.00,Wunderground v.1.15,2013-07-08 09:29:00,
2013-07-08 04:30:00,75.3,71.5,29.89,SSE,151,3.0,5.0,88,0.00,,,0.00,Wunderground v.1.15,2013-07-08 09:30:00,
2013-07-08 04:32:00,75.3,71.5,29.89,SSE,155,3.0,3.0,88,0.00,,,0.00,Wunderground v.1.15,2013-07-08 09:32:00,
2013-07-08 04:35:00,75.3,71.5,29.89,SSE,162,3.0,3.0,88,0.00,,,0.00,Wunderground v.1.15,2013-07-08 09:35:00,
2013-07-08 04:36:00,75.3,71.8,29.89,SSE,161,3.0,3.0,89,0.00,,,0.00,Wunderground v.1.15,2013-07-08 09:36:00,
2013-07-08 04:37:00,75.3,71.8,29.89,SSE,165,2.0,3.0,89,0.00,,,0.00,Wunderground v.1.15,2013-07-08 09:37:00,
2013-07-08 04:38:00,75.3,71.8,29.89,SE,126,2.0,5.0,89,0.00,,,0.00,Wunderground v.1.15,2013-07-08 09:38:00,
2013-07-08 04:40:00,75.3,71.5,29.89,SSE,157,2.0,5.0,88,0.00,,,0.00,Wunderground v.1.15,2013-07-08 09:40:00,
2013-07-08 04:42:00,75.3,71.5,29.89,South,184,2.0,2.0,88,0.00,,,0.00,Wunderground v.1.15,2013-07-08 09:42:00,
2013-07-08 04:43:00,75.3,71.5,29.89,SSE,155,2.0,7.0,88,0.00,,,0.00,Wunderground v.1.15,2013-07-08 09:43:00,
2013-07-08 04:45:00,75.3,71.5,29.89,SSE,164,3.0,7.0,88,0.00,,,0.00,Wunderground v.1.15,2013-07-08 09:45:00,
2013-07-08 04:49:00,75.3,71.5,29.90,SE,136,2.0,7.0,88,0.00,,,0.00,Wunderground v.1.15,2013-07-08 09:49:00,
2013-07-08 04:50:00,75.3,71.5,29.90,SE,145,3.0,7.0,88,0.00,,,0.00,Wunderground v.1.15,2013-07-08 09:50:00,
2013-07-08 04:52:00,75.3,71.5,29.90,SE,143,3.0,3.0,88,0.00,,,0.00,Wunderground v.1.15,2013-07-08 09:52:00,
2013-07-08 04:54:00,75.3,71.5,29.90,SE,140,3.0,3.0,88,0.00,,,0.00,Wunderground v.1.15,2013-07-08 09:54:00,
2013-07-08 04:56:00,75.1,71.3,29.90,SE,137,3.0,3.0,88,0.00,,,0.00,Wunderground v.1.15,2013-07-08 09:56:00,
2013-07-08 04:57:00,75.1,71.3,29.90,SE,137,3.0,3.0,88,0.00,,,0.00,Wunderground v.1.15,2013-07-08 09:57:00,
2013-07-08 04:58:00,75.1,71.3,29.90,SE,128,3.0,3.0,88,0.00,,,0.00,Wunderground v.1.15,2013-07-08 09:58:00,
2013-07-08 05:00:00,75.1,71.3,29.90,SE,134,3.0,3.0,88,0.00,,,0.00,Wunderground v.1.15,2013-07-08 10:00:00,
2013-07-08 05:02:00,75.1,71.3,29.90,SE,136,3.0,3.0,88,0.00,,,0.00,Wunderground v.1.15,2013-07-08 10:02:00,
2013-07-08 05:04:00,75.1,71.3,29.90,South,176,2.0,3.0,88,0.00,,,0.00,Wunderground v.1.15,2013-07-08 10:04:00,
2013-07-08 05:05:00,75.1,71.3,29.90,South,176,2.0,3.0,88,0.00,,,0.00,Wunderground v.1.15,2013-07-08 10:05:00,
2013-07-08 05:06:00,75.1,71.3,29.90,South,175,2.0,3.0,88,0.00,,,0.00,Wunderground v.1.15,2013-07-08 10:06:00,
2013-07-08 05:07:00,75.1,71.3,29.90,South,175,2.0,3.0,88,0.00,,,0.00,Wunderground v.1.15,2013-07-08 10:07:00,
2013-07-08 05:09:00,75.1,71.3,29.90,SSE,162,1.0,3.0,88,0.00,,,0.00,Wunderground v.1.15,2013-07-08 10:09:00,
2013-07-08 05:12:00,75.1,71.3,29.90,SSE,160,1.0,2.0,88,0.00,,,0.00,Wunderground v.1.15,2013-07-08 10:12:00,
2013-07-08 05:14:00,74.9,71.4,29.90,SSE,162,1.0,4.0,89,0.00,,,0.00,Wunderground v.1.15,2013-07-08 10:14:00,
2013-07-08 05:17:00,75.1,71.6,29.91,SSE,162,1.0,4.0,89,0.00,,,0.00,Wunderground v.1.15,2013-07-08 10:17:00,
2013-07-08 05:19:00,75.1,71.3,29.91,SSE,162,1.0,4.0,88,0.00,,,0.00,Wunderground v.1.15,2013-07-08 10:19:00,
2013-07-08 05:20:00,74.9,71.4,29.91,SSE,162,1.0,4.0,89,0.00,,,0.00,Wunderground v.1.15,2013-07-08 10:20:00,
2013-07-08 05:23:00,74.9,71.1,29.91,SSE,162,1.0,1.0,88,0.00,,,0.00,Wunderground v.1.15,2013-07-08 10:23:00,
2013-07-08 05:26:00,74.9,71.4,29.91,SSE,162,0.0,1.0,89,0.00,,,0.00,Wunderground v.1.15,2013-07-08 10:26:00,
2013-07-08 05:28:00,74.9,71.4,29.91,SSE,162,0.0,1.0,89,0.00,,,0.00,Wunderground v.1.15,2013-07-08 10:28:00,
2013-07-08 05:29:00,74.9,71.4,29.91,SSE,162,0.0,1.0,89,0.00,,,0.00,Wunderground v.1.15,2013-07-08 10:29:00,
2013-07-08 05:32:00,74.7,71.2,29.92,SSE,162,0.0,1.0,89,0.00,,,0.00,Wunderground v.1.15,2013-07-08 10:32:00,
2013-07-08 05:33:00,74.7,71.2,29.92,SSE,162,0.0,0.0,89,0.00,,,0.00,Wunderground v.1.15,2013-07-08 10:33:00,
2013-07-08 05:34:00,74.7,71.2,29.92,SSE,162,0.0,0.0,89,0.00,,,0.00,Wunderground v.1.15,2013-07-08 10:34:00,
2013-07-08 05:36:00,74.7,71.2,29.92,SSE,162,0.0,2.0,89,0.00,,,0.00,Wunderground v.1.15,2013-07-08 10:36:00,
2013-07-08 05:37:00,74.7,71.2,29.92,SSE,164,0.0,2.0,89,0.00,,,0.00,Wunderground v.1.15,2013-07-08 10:37:00,
2013-07-08 05:38:00,74.7,71.2,29.92,SSE,164,0.0,2.0,89,0.00,,,0.00,Wunderground v.1.15,2013-07-08 10:38:00,
2013-07-08 05:39:00,74.7,71.2,29.92,SSE,164,0.0,2.0,89,0.00,,,0.00,Wunderground v.1.15,2013-07-08 10:39:00,
2013-07-08 05:42:00,74.7,71.2,29.92,SSE,164,0.0,0.0,89,0.00,,,0.00,Wunderground v.1.15,2013-07-08 10:42:00,
2013-07-08 05:45:00,74.7,71.2,29.92,SSE,164,0.0,0.0,89,0.00,,,0.00,Wunderground v.1.15,2013-07-08 10:45:00,
2013-07-08 05:46:00,74.7,71.2,29.92,SSE,164,0.0,0.0,89,0.00,,,0.00,Wunderground v.1.15,2013-07-08 10:46:00,
2013-07-08 05:47:00,74.7,71.2,29.92,SSE,164,0.0,0.0,89,0.00,,,0.00,Wunderground v.1.15,2013-07-08 10:47:00,
2013-07-08 05:48:00,74.7,71.2,29.92,SSE,164,0.0,0.0,89,0.00,,,0.00,Wunderground v.1.15,2013-07-08 10:48:00,
2013-07-08 05:50:00,74.7,71.2,29.92,SSE,164,0.0,0.0,89,0.00,,,0.00,Wunderground v.1.15,2013-07-08 10:50:00,
2013-07-08 05:53:00,74.7,71.2,29.92,SSE,164,0.0,0.0,89,0.00,,,0.00,Wunderground v.1.15,2013-07-08 10:53:00,
2013-07-08 05:55:00,74.7,71.2,29.92,SSE,164,0.0,0.0,89,0.00,,,0.00,Wunderground v.1.15,2013-07-08 10:55:00,
2013-07-08 05:57:00,74.7,71.2,29.92,SSE,164,0.0,1.0,89,0.00,,,0.00,Wunderground v.1.15,2013-07-08 10:57:00,
2013-07-08 05:58:00,74.7,71.2,29.92,SSE,164,0.0,1.0,89,0.00,,,0.00,Wunderground v.1.15,2013-07-08 10:58:00,
2013-07-08 06:00:00,74.7,71.2,29.92,SSE,164,0.0,1.0,89,0.00,,,0.00,Wunderground v.1.15,2013-07-08 11:00:00,
2013-07-08 06:02:00,74.7,71.2,29.92,SSE,164,0.0,0.0,89,0.00,,,0.00,Wunderground v.1.15,2013-07-08 11:02:00,
2013-07-08 06:05:00,74.7,71.2,29.92,SSE,164,0.0,0.0,89,0.00,,,0.00,Wunderground v.1.15,2013-07-08 11:05:00,
2013-07-08 06:07:00,74.7,71.2,29.92,SSE,164,0.0,0.0,89,0.00,,,0.00,Wunderground v.1.15,2013-07-08 11:07:00,
2013-07-08 06:09:00,74.7,71.2,29.92,SSE,164,0.0,0.0,89,0.00,,,0.00,Wunderground v.1.15,2013-07-08 11:09:00,
2013-07-08 06:12:00,74.7,71.2,29.92,SSE,164,0.0,0.0,89,0.00,,,0.00,Wunderground v.1.15,2013-07-08 11:12:00,
2013-07-08 06:13:00,74.7,71.2,29.92,SSE,164,0.0,1.0,89,0.00,,,0.00,Wunderground v.1.15,2013-07-08 11:13:00,
2013-07-08 06:14:00,74.7,71.2,29.92,SSE,164,0.0,1.0,89,0.00,,,0.00,Wunderground v.1.15,2013-07-08 11:14:00,
2013-07-08 06:16:00,74.7,71.2,29.93,SSE,164,0.0,1.0,89,0.00,,,0.00,Wunderground v.1.15,2013-07-08 11:16:00,
2013-07-08 06:17:00,74.7,71.2,29.93,SSE,164,0.0,1.0,89,0.00,,,0.00,Wunderground v.1.15,2013-07-08 11:17:00,
2013-07-08 06:18:00,74.7,71.2,29.93,SSE,164,0.0,1.0,89,0.00,,,0.00,Wunderground v.1.15,2013-07-08 11:18:00,
2013-07-08 06:22:00,74.9,71.4,29.93,SSE,164,0.0,0.0,89,0.00,,,0.00,Wunderground v.1.15,2013-07-08 11:22:00,
2013-07-08 06:23:00,74.9,71.4,29.93,SSE,165,0.0,1.0,89,0.00,,,0.00,Wunderground v.1.15,2013-07-08 11:23:00,
2013-07-08 06:25:00,74.9,71.4,29.93,SSE,164,0.0,1.0,89,0.00,,,0.00,Wunderground v.1.15,2013-07-08 11:25:00,
2013-07-08 06:26:00,74.9,71.4,29.93,SSE,164,0.0,1.0,89,0.00,,,0.00,Wunderground v.1.15,2013-07-08 11:26:00,
2013-07-08 06:27:00,74.9,71.4,29.93,SSE,164,0.0,1.0,89,0.00,,,0.00,Wunderground v.1.15,2013-07-08 11:27:00,
2013-07-08 06:32:00,74.7,71.2,29.94,SSE,164,0.0,0.0,89,0.00,,,0.00,Wunderground v.1.15,2013-07-08 11:32:00,
2013-07-08 06:33:00,74.7,71.2,29.94,SSE,164,0.0,0.0,89,0.00,,,0.00,Wunderground v.1.15,2013-07-08 11:33:00,
2013-07-08 06:34:00,74.7,71.2,29.94,SSE,164,0.0,0.0,89,0.00,,,0.00,Wunderground v.1.15,2013-07-08 11:34:00,
2013-07-08 06:35:00,74.7,71.2,29.94,SSE,164,0.0,0.0,89,0.00,,,0.00,Wunderground v.1.15,2013-07-08 11:35:00,
2013-07-08 06:38:00,74.9,71.4,29.94,SSE,164,0.0,0.0,89,0.00,,,0.00,Wunderground v.1.15,2013-07-08 11:38:00,
2013-07-08 06:39:00,74.9,71.4,29.94,SSE,164,0.0,0.0,89,0.00,,,0.00,Wunderground v.1.15,2013-07-08 11:39:00,
2013-07-08 06:42:00,74.9,71.4,29.94,SSE,164,0.0,0.0,89,0.00,,,0.00,Wunderground v.1.15,2013-07-08 11:42:00,
2013-07-08 06:45:00,74.9,71.4,29.94,SSE,164,0.0,0.0,89,0.00,,,0.00,Wunderground v.1.15,2013-07-08 11:45:00,
2013-07-08 06:46:00,74.9,71.4,29.94,SSE,164,0.0,0.0,89,0.00,,,0.00,Wunderground v.1.15,2013-07-08 11:46:00,
2013-07-08 06:47:00,74.9,71.4,29.94,SSE,164,0.0,0.0,89,0.00,,,0.00,Wunderground v.1.15,2013-07-08 11:47:00,
2013-07-08 06:49:00,74.9,71.4,29.94,SSE,164,0.0,1.0,89,0.00,,,0.00,Wunderground v.1.15,2013-07-08 11:49:00,
2013-07-08 06:50:00,74.9,71.4,29.94,SSE,164,0.0,1.0,89,0.00,,,0.00,Wunderground v.1.15,2013-07-08 11:50:00,
2013-07-08 06:52:00,74.9,71.4,29.94,SSE,165,0.0,1.0,89,0.00,,,0.00,Wunderground v.1.15,2013-07-08 11:52:00,
2013-07-08 06:55:00,74.9,71.4,29.94,SSE,165,0.0,2.0,89,0.00,,,0.00,Wunderground v.1.15,2013-07-08 11:55:00,
2013-07-08 06:56:00,74.9,71.4,29.94,SSE,164,1.0,2.0,89,0.00,,,0.00,Wunderground v.1.15,2013-07-08 11:56:00,
2013-07-08 06:57:00,75.1,71.6,29.94,SSE,165,1.0,2.0,89,0.00,,,0.00,Wunderground v.1.15,2013-07-08 11:57:00,
2013-07-08 06:59:00,75.1,71.6,29.94,SSE,168,1.0,3.0,89,0.00,,,0.00,Wunderground v.1.15,2013-07-08 11:59:00,
2013-07-08 07:02:00,75.1,71.6,29.94,South,175,1.0,1.0,89,0.00,,,0.00,Wunderground v.1.15,2013-07-08 12:02:00,
2013-07-08 07:03:00,75.1,71.6,29.94,South,175,1.0,1.0,89,0.00,,,0.00,Wunderground v.1.15,2013-07-08 12:03:00,
2013-07-08 07:04:00,75.1,71.6,29.94,South,175,1.0,1.0,89,0.00,,,0.00,Wunderground v.1.15,2013-07-08 12:04:00,
2013-07-08 07:07:00,75.1,71.6,29.94,South,175,2.0,4.0,89,0.00,,,0.00,Wunderground v.1.15,2013-07-08 12:07:00,
2013-07-08 07:10:00,75.1,71.6,29.94,South,175,2.0,5.0,89,0.00,,,0.00,Wunderground v.1.15,2013-07-08 12:10:00,
2013-07-08 07:12:00,75.3,71.8,29.94,South,175,2.0,2.0,89,0.00,,,0.00,Wunderground v.1.15,2013-07-08 12:12:00,
2013-07-08 07:13:00,75.3,71.8,29.94,South,178,2.0,2.0,89,0.00,,,0.00,Wunderground v.1.15,2013-07-08 12:13:00,
2013-07-08 07:15:00,75.3,71.8,29.94,SW,215,2.0,2.0,89,0.00,,,0.00,Wunderground v.1.15,2013-07-08 12:15:00,
2013-07-08 07:17:00,75.3,71.8,29.94,SW,215,2.0,3.0,89,0.00,,,0.00,Wunderground v.1.15,2013-07-08 12:17:00,
2013-07-08 07:19:00,75.3,71.8,29.94,SW,215,1.0,3.0,89,0.00,,,0.00,Wunderground v.1.15,2013-07-08 12:19:00,
2013-07-08 07:22:00,75.3,71.8,29.94,SW,215,1.0,1.0,89,0.00,,,0.00,Wunderground v.1.15,2013-07-08 12:22:00,
2013-07-08 07:25:00,75.3,71.8,29.94,SSW,208,1.0,2.0,89,0.00,,,0.00,Wunderground v.1.15,2013-07-08 12:25:00,
2013-07-08 07:27:00,75.4,71.9,29.94,SSW,208,1.0,2.0,89,0.00,,,0.00,Wunderground v.1.15,2013-07-08 12:27:00,
2013-07-08 07:28:00,75.4,71.9,29.94,SSW,208,1.0,2.0,89,0.00,,,0.00,Wunderground v.1.15,2013-07-08 12:28:00,
2013-07-08 07:30:00,75.4,71.9,29.94,SSW,208,1.0,3.0,89,0.00,,,0.00,Wunderground v.1.15,2013-07-08 12:30:00,
2013-07-08 07:32:00,75.4,71.9,29.94,SSW,208,1.0,2.0,89,0.00,,,0.00,Wunderground v.1.15,2013-07-08 12:32:00,
2013-07-08 07:34:00,75.4,71.9,29.94,SSW,208,1.0,2.0,89,0.00,,,0.00,Wunderground v.1.15,2013-07-08 12:34:00,
2013-07-08 07:35:00,75.6,72.1,29.94,SSW,208,1.0,2.0,89,0.00,,,0.00,Wunderground v.1.15,2013-07-08 12:35:00,
2013-07-08 07:37:00,75.6,72.1,29.94,SSW,208,1.0,2.0,89,0.00,,,0.00,Wunderground v.1.15,2013-07-08 12:37:00,
2013-07-08 07:38:00,75.6,72.1,29.94,SSW,208,1.0,2.0,89,0.00,,,0.00,Wunderground v.1.15,2013-07-08 12:38:00,
2013-07-08 07:40:00,75.6,72.1,29.94,SSW,208,0.0,2.0,89,0.00,,,0.00,Wunderground v.1.15,2013-07-08 12:40:00,
2013-07-08 07:42:00,75.6,72.1,29.94,SSW,208,0.0,0.0,89,0.00,,,0.00,Wunderground v.1.15,2013-07-08 12:42:00,
2013-07-08 07:43:00,75.6,72.1,29.94,SSW,208,0.0,0.0,89,0.00,,,0.00,Wunderground v.1.15,2013-07-08 12:43:00,
2013-07-08 07:47:00,75.8,72.3,29.95,SE,143,0.0,0.0,89,0.00,,,0.00,Wunderground v.1.15,2013-07-08 12:47:00,
2013-07-08 07:49:00,75.8,72.0,29.95,SSE,147,0.0,3.0,88,0.00,,,0.00,Wunderground v.1.15,2013-07-08 12:49:00,
2013-07-08 07:52:00,75.8,72.0,29.95,SSE,154,0.0,0.0,88,0.00,,,0.00,Wunderground v.1.15,2013-07-08 12:52:00,
2013-07-08 07:54:00,75.8,72.0,29.95,South,174,1.0,3.0,88,0.00,,,0.00,Wunderground v.1.15,2013-07-08 12:54:00,
2013-07-08 07:55:00,75.8,72.0,29.95,South,174,1.0,3.0,88,0.00,,,0.00,Wunderground v.1.15,2013-07-08 12:55:00,
2013-07-08 07:56:00,75.8,72.0,29.95,South,179,1.0,3.0,88,0.00,,,0.00,Wunderground v.1.15,2013-07-08 12:56:00,
2013-07-08 07:57:00,75.8,72.0,29.95,South,179,1.0,3.0,88,0.00,,,0.00,Wunderground v.1.15,2013-07-08 12:57:00,
2013-07-08 07:58:00,75.8,72.0,29.95,South,179,2.0,3.0,88,0.00,,,0.00,Wunderground v.1.15,2013-07-08 12:58:00,
2013-07-08 08:00:00,76.0,72.2,29.95,South,179,1.0,3.0,88,0.00,,,0.00,Wunderground v.1.15,2013-07-08 13:00:00,
2013-07-08 08:03:00,76.0,72.2,29.95,South,188,1.0,7.0,88,0.00,,,0.00,Wunderground v.1.15,2013-07-08 13:03:00,
2013-07-08 08:07:00,76.1,71.9,29.95,South,176,2.0,7.0,87,0.00,,,0.00,Wunderground v.1.15,2013-07-08 13:07:00,
2013-07-08 08:08:00,76.1,71.9,29.95,South,178,2.0,7.0,87,0.00,,,0.00,Wunderground v.1.15,2013-07-08 13:08:00,
2013-07-08 08:09:00,76.1,71.9,29.95,South,181,2.0,7.0,87,0.00,,,0.00,Wunderground v.1.15,2013-07-08 13:09:00,
2013-07-08 08:12:00,76.3,72.1,29.95,South,176,2.0,2.0,87,0.00,,,0.00,Wunderground v.1.15,2013-07-08 13:12:00,
2013-07-08 08:14:00,76.3,72.1,29.95,South,179,2.0,2.0,87,0.00,,,0.00,Wunderground v.1.15,2013-07-08 13:14:00,
2013-07-08 08:18:00,76.5,72.0,29.96,South,184,1.0,5.0,86,0.00,,,0.00,Wunderground v.1.15,2013-07-08 13:18:00,
2013-07-08 08:20:00,76.5,72.0,29.96,SSE,162,2.0,5.0,86,0.00,,,0.00,Wunderground v.1.15,2013-07-08 13:20:00,
2013-07-08 08:22:00,76.5,72.0,29.96,South,185,2.0,2.0,86,0.00,,,0.00,Wunderground v.1.15,2013-07-08 13:22:00,
2013-07-08 08:24:00,76.7,72.2,29.96,South,188,3.0,5.0,86,0.00,,,0.00,Wunderground v.1.15,2013-07-08 13:24:00,
2013-07-08 08:25:00,76.7,72.2,29.96,SE,144,3.0,5.0,86,0.00,,,0.00,Wunderground v.1.15,2013-07-08 13:25:00,
2013-07-08 08:28:00,76.7,72.2,29.96,South,182,3.0,5.0,86,0.00,,,0.00,Wunderground v.1.15,2013-07-08 13:28:00,
2013-07-08 08:32:00,76.8,72.3,29.96,SSE,154,3.0,3.0,86,0.00,,,0.00,Wunderground v.1.15,2013-07-08 13:32:00,
2013-07-08 08:34:00,76.8,72.3,29.96,SSW,193,3.0,4.0,86,0.00,,,0.00,Wunderground v.1.15,2013-07-08 13:34:00,
2013-07-08 08:35:00,77.0,72.1,29.96,South,182,3.0,4.0,85,0.00,,,0.00,Wunderground v.1.15,2013-07-08 13:35:00,
2013-07-08 08:36:00,77.0,72.1,29.96,SW,226,3.0,4.0,85,0.00,,,0.00,Wunderground v.1.15,2013-07-08 13:36:00,
2013-07-08 08:38:00,77.0,72.1,29.96,South,172,3.0,6.0,85,0.00,,,0.00,Wunderground v.1.15,2013-07-08 13:38:00,
2013-07-08 08:42:00,77.2,72.3,29.96,SSE,150,4.0,12.0,85,0.00,,,0.00,Wunderground v.1.15,2013-07-08 13:42:00,
2013-07-08 08:43:00,77.2,72.3,29.96,SE,124,5.0,12.0,85,0.00,,,0.00,Wunderground v.1.15,2013-07-08 13:43:00,
2013-07-08 08:44:00,77.2,72.3,29.96,SE,134,4.0,12.0,85,0.00,,,0.00,Wunderground v.1.15,2013-07-08 13:44:00,
2013-07-08 08:46:00,77.4,72.2,29.97,South,175,4.0,12.0,84,0.00,,,0.00,Wunderground v.1.15,2013-07-08 13:46:00,
2013-07-08 08:48:00,77.6,72.4,29.97,South,182,4.0,12.0,84,0.00,,,0.00,Wunderground v.1.15,2013-07-08 13:48:00,
2013-07-08 08:50:00,77.6,72.4,29.97,SSW,202,4.0,12.0,84,0.00,,,0.00,Wunderground v.1.15,2013-07-08 13:50:00,
2013-07-08 08:53:00,77.7,72.1,29.97,South,186,4.0,8.0,83,0.00,,,0.00,Wunderground v.1.15,2013-07-08 13:53:00,
2013-07-08 08:55:00,77.7,72.1,29.97,South,188,4.0,9.0,83,0.00,,,0.00,Wunderground v.1.15,2013-07-08 13:55:00,
2013-07-08 08:56:00,77.7,72.1,29.97,SW,216,5.0,9.0,83,0.00,,,0.00,Wunderground v.1.15,2013-07-08 13:56:00,
2013-07-08 08:57:00,77.7,72.1,29.97,South,184,5.0,9.0,83,0.00,,,0.00,Wunderground v.1.15,2013-07-08 13:57:00,
2013-07-08 08:59:00,77.9,72.3,29.97,SSW,192,5.0,9.0,83,0.00,,,0.00,Wunderground v.1.15,2013-07-08 13:59:00,
2013-07-08 09:00:00,77.9,72.3,29.97,SSW,199,5.0,9.0,83,0.00,,,0.00,Wunderground v.1.15,2013-07-08 14:00:00,
2013-07-08 09:03:00,77.9,72.3,29.97,SE,130,5.0,10.0,83,0.00,,,0.00,Wunderground v.1.15,2013-07-08 14:03:00,
2013-07-08 09:04:00,77.9,72.3,29.97,SE,130,5.0,10.0,83,0.00,,,0.00,Wunderground v.1.15,2013-07-08 14:04:00,
2013-07-08 09:05:00,77.9,72.0,29.97,SSE,165,5.0,10.0,82,0.00,,,0.00,Wunderground v.1.15,2013-07-08 14:05:00,
2013-07-08 09:08:00,78.1,72.2,29.97,SE,134,5.0,10.0,82,0.00,,,0.00,Wunderground v.1.15,2013-07-08 14:08:00,
2013-07-08 09:12:00,78.1,72.2,29.97,SSE,148,4.0,4.0,82,0.00,,,0.00,Wunderground v.1.15,2013-07-08 14:12:00,
2013-07-08 09:13:00,78.1,72.2,29.97,SSE,152,4.0,4.0,82,0.00,,,0.00,Wunderground v.1.15,2013-07-08 14:13:00,
2013-07-08 09:14:00,78.3,72.3,29.97,SSE,157,4.0,4.0,82,0.00,,,0.00,Wunderground v.1.15,2013-07-08 14:14:00,
2013-07-08 09:18:00,78.5,72.5,29.97,South,188,2.0,4.0,82,0.00,,,0.00,Wunderground v.1.15,2013-07-08 14:18:00,
2013-07-08 09:19:00,78.5,72.5,29.97,South,188,2.0,4.0,82,0.00,,,0.00,Wunderground v.1.15,2013-07-08 14:19:00,
2013-07-08 09:22:00,78.5,72.5,29.97,SSW,202,2.0,2.0,82,0.00,,,0.00,Wunderground v.1.15,2013-07-08 14:22:00,
2013-07-08 09:23:00,78.6,72.6,29.97,SSW,202,2.0,2.0,82,0.00,,,0.00,Wunderground v.1.15,2013-07-08 14:23:00,
2013-07-08 09:24:00,78.6,72.6,29.97,SSW,202,2.0,5.0,82,0.00,,,0.00,Wunderground v.1.15,2013-07-08 14:24:00,
2013-07-08 09:26:00,78.6,72.3,29.97,SSW,202,2.0,5.0,81,0.00,,,0.00,Wunderground v.1.15,2013-07-08 14:26:00,
2013-07-08 09:27:00,78.6,72.3,29.97,SSE,165,2.0,6.0,81,0.00,,,0.00,Wunderground v.1.15,2013-07-08 14:27:00,
2013-07-08 09:29:00,78.6,72.3,29.97,SE,130,3.0,6.0,81,0.00,,,0.00,Wunderground v.1.15,2013-07-08 14:29:00,
2013-07-08 09:30:00,78.6,72.3,29.97,SE,130,3.0,6.0,81,0.00,,,0.00,Wunderground v.1.15,2013-07-08 14:30:00,
2013-07-08 09:32:00,78.5,72.2,29.97,South,186,3.0,5.0,81,0.00,,,0.00,Wunderground v.1.15,2013-07-08 14:32:00,
2013-07-08 09:33:00,78.5,72.2,29.97,SE,145,3.0,5.0,81,0.00,,,0.00,Wunderground v.1.15,2013-07-08 14:33:00,
2013-07-08 09:35:00,78.5,72.2,29.97,South,175,4.0,6.0,81,0.00,,,0.00,Wunderground v.1.15,2013-07-08 14:35:00,
2013-07-08 09:36:00,78.5,72.2,29.97,South,175,4.0,6.0,81,0.00,,,0.00,Wunderground v.1.15,2013-07-08 14:36:00,
2013-07-08 09:37:00,78.6,72.3,29.97,SSE,161,4.0,6.0,81,0.00,,,0.00,Wunderground v.1.15,2013-07-08 14:37:00,
2013-07-08 09:43:00,78.6,72.3,29.97,SE,143,4.0,5.0,81,0.00,,,0.00,Wunderground v.1.15,2013-07-08 14:43:00,
2013-07-08 09:44:00,78.6,72.3,29.97,South,188,4.0,5.0,81,0.00,,,0.00,Wunderground v.1.15,2013-07-08 14:44:00,
2013-07-08 09:45:00,78.6,72.3,29.97,South,188,3.0,5.0,81,0.00,,,0.00,Wunderground v.1.15,2013-07-08 14:45:00,
2013-07-08 09:48:00,78.6,72.3,29.97,SE,138,4.0,7.0,81,0.00,,,0.00,Wunderground v.1.15,2013-07-08 14:48:00,
2013-07-08 09:50:00,78.8,72.5,29.97,South,189,4.0,7.0,81,0.00,,,0.00,Wunderground v.1.15,2013-07-08 14:50:00,
2013-07-08 09:52:00,78.8,72.5,29.97,SSE,158,4.0,5.0,81,0.00,,,0.00,Wunderground v.1.15,2013-07-08 14:52:00,
2013-07-08 09:53:00,78.8,72.1,29.97,SW,217,4.0,7.0,80,0.00,,,0.00,Wunderground v.1.15,2013-07-08 14:53:00,
2013-07-08 09:55:00,79.0,72.7,29.97,SSW,198,4.0,7.0,81,0.00,,,0.00,Wunderground v.1.15,2013-07-08 14:55:00,
2013-07-08 09:57:00,79.0,72.3,29.97,SSW,205,4.0,7.0,80,0.00,,,0.00,Wunderground v.1.15,2013-07-08 14:57:00,
2013-07-08 09:58:00,79.0,72.3,29.97,SW,215,4.0,7.0,80,0.00,,,0.00,Wunderground v.1.15,2013-07-08 14:58:00,
2013-07-08 10:02:00,79.2,72.1,29.98,SSW,192,4.0,6.0,79,0.00,,,0.00,Wunderground v.1.15,2013-07-08 15:02:00,
2013-07-08 10:04:00,79.2,72.1,29.98,SSW,195,4.0,6.0,79,0.00,,,0.00,Wunderground v.1.15,2013-07-08 15:04:00,
2013-07-08 10:05:00,79.4,72.7,29.98,SSW,208,4.0,6.0,80,0.00,,,0.00,Wunderground v.1.15,2013-07-08 15:05:00,
2013-07-08 10:06:00,79.4,72.3,29.98,SSW,202,4.0,6.0,79,0.00,,,0.00,Wunderground v.1.15,2013-07-08 15:06:00,
2013-07-08 10:09:00,79.4,72.3,29.98,SSW,208,3.0,6.0,79,0.00,,,0.00,Wunderground v.1.15,2013-07-08 15:09:00,
2013-07-08 10:12:00,79.8,72.7,29.98,South,182,3.0,6.0,79,0.00,,,0.00,Wunderground v.1.15,2013-07-08 15:12:00,
2013-07-08 10:13:00,79.8,72.3,29.98,WSW,244,3.0,6.0,78,0.00,,,0.00,Wunderground v.1.15,2013-07-08 15:13:00,
2013-07-08 10:15:00,79.8,72.3,29.98,SW,229,3.0,7.0,78,0.00,,,0.00,Wunderground v.1.15,2013-07-08 15:15:00,
2013-07-08 10:19:00,80.1,72.6,29.98,South,189,3.0,7.0,78,0.00,,,0.00,Wunderground v.1.15,2013-07-08 15:19:00,
2013-07-08 10:22:00,80.3,72.4,29.98,SSW,212,2.0,5.0,77,0.00,,,0.00,Wunderground v.1.15,2013-07-08 15:22:00,
2013-07-08 10:25:00,80.5,72.2,29.98,SSW,200,2.0,7.0,76,0.00,,,0.00,Wunderground v.1.15,2013-07-08 15:25:00,
2013-07-08 10:27:00,80.5,72.2,29.98,South,169,2.0,7.0,76,0.00,,,0.00,Wunderground v.1.15,2013-07-08 15:27:00,
2013-07-08 10:28:00,80.5,72.2,29.98,ESE,120,3.0,7.0,76,0.00,,,0.00,Wunderground v.1.15,2013-07-08 15:28:00,
2013-07-08 10:30:00,80.5,72.2,29.98,SSE,168,3.0,7.0,76,0.00,,,0.00,Wunderground v.1.15,2013-07-08 15:30:00,
2013-07-08 10:32:00,80.5,71.8,29.98,SSE,152,4.0,6.0,75,0.00,,,0.00,Wunderground v.1.15,2013-07-08 15:32:00,
2013-07-08 10:33:00,80.5,71.8,29.98,SE,128,4.0,6.0,75,0.00,,,0.00,Wunderground v.1.15,2013-07-08 15:33:00,
2013-07-08 10:34:00,80.5,71.8,29.98,South,172,5.0,6.0,75,0.00,,,0.00,Wunderground v.1.15,2013-07-08 15:34:00,
2013-07-08 10:35:00,80.5,71.8,29.98,SE,131,5.0,6.0,75,0.00,,,0.00,Wunderground v.1.15,2013-07-08 15:35:00,
2013-07-08 10:39:00,80.7,71.6,29.98,SSE,154,5.0,6.0,74,0.00,,,0.00,Wunderground v.1.15,2013-07-08 15:39:00,
2013-07-08 10:40:00,80.7,71.6,29.98,SSE,164,5.0,6.0,74,0.00,,,0.00,Wunderground v.1.15,2013-07-08 15:40:00,
2013-07-08 10:43:00,80.7,72.0,29.98,South,176,4.0,6.0,75,0.00,,,0.00,Wunderground v.1.15,2013-07-08 15:43:00,
2013-07-08 10:45:00,80.9,71.8,29.98,South,186,4.0,6.0,74,0.00,,,0.00,Wunderground v.1.15,2013-07-08 15:45:00,
2013-07-08 10:46:00,80.9,71.8,29.99,South,185,4.0,6.0,74,0.00,,,0.00,Wunderground v.1.15,2013-07-08 15:46:00,
2013-07-08 10:47:00,80.9,71.8,29.99,SE,137,4.0,6.0,74,0.00,,,0.00,Wunderground v.1.15,2013-07-08 15:47:00,
2013-07-08 10:52:00,80.7,71.6,29.99,SE,127,4.0,5.0,74,0.00,,,0.00,Wunderground v.1.15,2013-07-08 15:52:00,
2013-07-08 10:53:00,80.7,71.6,29.99,SE,137,4.0,7.0,74,0.00,,,0.00,Wunderground v.1.15,2013-07-08 15:53:00,
2013-07-08 10:54:00,80.5,71.4,29.99,SE,124,5.0,7.0,74,0.00,,,0.00,Wunderground v.1.15,2013-07-08 15:54:00,
2013-07-08 10:56:00,80.5,71.8,29.99,SSE,164,5.0,7.0,75,0.00,,,0.00,Wunderground v.1.15,2013-07-08 15:56:00,
2013-07-08 10:59:00,80.7,72.0,29.99,South,172,4.0,7.0,75,0.00,,,0.00,Wunderground v.1.15,2013-07-08 15:59:00,
2013-07-08 11:00:00,80.9,72.2,29.99,SSE,152,4.0,7.0,75,0.00,,,0.00,Wunderground v.1.15,2013-07-08 16:00:00,
2013-07-08 11:03:00,81.1,72.0,29.99,South,185,4.0,6.0,74,0.00,,,0.00,Wunderground v.1.15,2013-07-08 16:03:00,
2013-07-08 11:05:00,80.9,71.0,29.99,South,176,3.0,7.0,72,0.00,,,0.00,Wunderground v.1.15,2013-07-08 16:05:00,
2013-07-08 11:06:00,81.1,71.2,29.99,SSW,196,3.0,7.0,72,0.00,,,0.00,Wunderground v.1.15,2013-07-08 16:06:00,
2013-07-08 11:07:00,81.1,70.8,29.99,SSE,155,4.0,7.0,71,0.00,,,0.00,Wunderground v.1.15,2013-07-08 16:07:00,
2013-07-08 11:08:00,81.2,70.9,29.99,SE,141,4.0,7.0,71,0.00,,,0.00,Wunderground v.1.15,2013-07-08 16:08:00,
2013-07-08 11:09:00,81.2,70.5,29.99,SSW,212,4.0,7.0,70,0.00,,,0.00,Wunderground v.1.15,2013-07-08 16:09:00,
2013-07-08 11:10:00,81.2,70.5,29.99,West,267,5.0,7.0,70,0.00,,,0.00,Wunderground v.1.15,2013-07-08 16:10:00,
2013-07-08 11:14:00,81.4,70.7,29.99,SE,136,6.0,8.0,70,0.00,,,0.00,Wunderground v.1.15,2013-07-08 16:14:00,
2013-07-08 11:15:00,81.2,70.5,29.99,SSE,162,6.0,8.0,70,0.00,,,0.00,Wunderground v.1.15,2013-07-08 16:15:00,
2013-07-08 11:16:00,81.2,70.5,29.99,SSE,147,6.0,8.0,70,0.00,,,0.00,Wunderground v.1.15,2013-07-08 16:16:00,
2013-07-08 11:19:00,81.4,71.1,29.99,SE,141,6.0,10.0,71,0.00,,,0.00,Wunderground v.1.15,2013-07-08 16:19:00,
2013-07-08 11:20:00,81.4,71.1,29.99,SSE,147,6.0,10.0,71,0.00,,,0.00,Wunderground v.1.15,2013-07-08 16:20:00,
2013-07-08 11:22:00,81.6,71.3,29.99,South,176,5.0,8.0,71,0.00,,,0.00,Wunderground v.1.15,2013-07-08 16:22:00,
2013-07-08 11:24:00,81.8,71.5,29.99,SSW,195,5.0,8.0,71,0.00,,,0.00,Wunderground v.1.15,2013-07-08 16:24:00,
2013-07-08 11:29:00,81.8,70.6,29.99,ESE,117,5.0,11.0,69,0.00,,,0.00,Wunderground v.1.15,2013-07-08 16:29:00,
2013-07-08 11:32:00,81.6,70.4,29.99,SE,127,6.0,10.0,69,0.00,,,0.00,Wunderground v.1.15,2013-07-08 16:32:00,
2013-07-08 11:34:00,81.6,70.0,29.99,ESE,110,7.0,11.0,68,0.00,,,0.00,Wunderground v.1.15,2013-07-08 16:34:00,
2013-07-08 11:36:00,81.8,70.6,29.99,SSW,198,7.0,11.0,69,0.00,,,0.00,Wunderground v.1.15,2013-07-08 16:36:00,
2013-07-08 11:37:00,82.0,70.8,29.99,South,174,6.0,11.0,69,0.00,,,0.00,Wunderground v.1.15,2013-07-08 16:37:00,
2013-07-08 11:38:00,82.0,70.8,29.99,SE,126,6.0,11.0,69,0.00,,,0.00,Wunderground v.1.15,2013-07-08 16:38:00,
2013-07-08 11:42:00,82.4,69.9,29.99,South,171,7.0,7.0,66,0.00,,,0.00,Wunderground v.1.15,2013-07-08 16:42:00,
2013-07-08 11:44:00,82.8,69.8,29.99,South,172,7.0,9.0,65,0.00,,,0.00,Wunderground v.1.15,2013-07-08 16:44:00,
2013-07-08 11:45:00,82.8,69.4,29.99,South,178,7.0,9.0,64,0.00,,,0.00,Wunderground v.1.15,2013-07-08 16:45:00,
2013-07-08 11:49:00,83.2,70.2,29.99,SSW,196,8.0,10.0,65,0.00,,,0.00,Wunderground v.1.15,2013-07-08 16:49:00,
2013-07-08 11:50:00,83.2,70.2,29.99,South,179,7.0,10.0,65,0.00,,,0.00,Wunderground v.1.15,2013-07-08 16:50:00,
2013-07-08 11:52:00,83.4,70.4,29.99,SSE,151,6.0,6.0,65,0.00,,,0.00,Wunderground v.1.15,2013-07-08 16:52:00,
2013-07-08 11:53:00,83.4,70.4,29.99,SE,134,6.0,16.0,65,0.00,,,0.00,Wunderground v.1.15,2013-07-08 16:53:00,
2013-07-08 11:56:00,83.4,69.9,29.99,South,185,6.0,16.0,64,0.00,,,0.00,Wunderground v.1.15,2013-07-08 16:56:00,
2013-07-08 11:57:00,83.2,69.8,29.99,SSE,148,6.0,16.0,64,0.00,,,0.00,Wunderground v.1.15,2013-07-08 16:57:00,
2013-07-08 11:59:00,83.4,70.4,29.99,SSE,164,6.0,16.0,65,0.00,,,0.00,Wunderground v.1.15,2013-07-08 16:59:00,
2013-07-08 12:02:00,83.2,70.2,29.99,SE,141,6.0,6.0,65,0.00,,,0.00,Wunderground v.1.15,2013-07-08 17:02:00,
2013-07-08 12:05:00,83.4,70.4,29.99,ESE,123,6.0,12.0,65,0.00,,,0.00,Wunderground v.1.15,2013-07-08 17:05:00,
2013-07-08 12:06:00,83.4,70.4,29.99,SSE,158,7.0,12.0,65,0.00,,,0.00,Wunderground v.1.15,2013-07-08 17:06:00,
2013-07-08 12:07:00,83.4,70.4,29.99,SE,144,7.0,12.0,65,0.00,,,0.00,Wunderground v.1.15,2013-07-08 17:07:00,
2013-07-08 12:09:00,83.0,70.0,29.99,South,191,8.0,12.0,65,0.00,,,0.00,Wunderground v.1.15,2013-07-08 17:09:00,
2013-07-08 12:14:00,83.4,69.9,29.99,South,186,8.0,8.0,64,0.00,,,0.00,Wunderground v.1.15,2013-07-08 17:14:00,
2013-07-08 12:15:00,83.4,69.9,29.99,SE,134,9.0,9.0,64,0.00,,,0.00,Wunderground v.1.15,2013-07-08 17:15:00,
2013-07-08 12:19:00,83.6,70.1,29.98,SSE,167,8.0,16.0,64,0.00,,,0.00,Wunderground v.1.15,2013-07-08 17:19:00,
2013-07-08 12:20:00,83.6,70.1,29.98,ESE,123,7.0,16.0,64,0.00,,,0.00,Wunderground v.1.15,2013-07-08 17:20:00,
2013-07-08 12:22:00,83.6,70.1,29.98,SE,128,7.0,7.0,64,0.00,,,0.00,Wunderground v.1.15,2013-07-08 17:22:00,
2013-07-08 12:25:00,83.6,70.1,29.98,SE,136,7.0,7.0,64,0.00,,,0.00,Wunderground v.1.15,2013-07-08 17:25:00,
2013-07-08 12:27:00,83.6,70.1,29.98,SSE,147,6.0,7.0,64,0.00,,,0.00,Wunderground v.1.15,2013-07-08 17:27:00,
2013-07-08 12:28:00,83.8,70.3,29.98,SE,137,6.0,10.0,64,0.00,,,0.00,Wunderground v.1.15,2013-07-08 17:28:00,
2013-07-08 12:30:00,83.8,69.9,29.98,SE,130,6.0,10.0,63,0.00,,,0.00,Wunderground v.1.15,2013-07-08 17:30:00,
2013-07-08 12:36:00,84.0,69.6,29.98,South,186,6.0,10.0,62,0.00,,,0.00,Wunderground v.1.15,2013-07-08 17:36:00,
2013-07-08 12:37:00,84.0,69.6,29.98,South,186,6.0,10.0,62,0.00,,,0.00,Wunderground v.1.15,2013-07-08 17:37:00,
2013-07-08 12:38:00,84.0,69.6,29.98,South,181,6.0,10.0,62,0.00,,,0.00,Wunderground v.1.15,2013-07-08 17:38:00,
2013-07-08 12:43:00,83.8,69.4,29.98,South,174,6.0,6.0,62,0.00,,,0.00,Wunderground v.1.15,2013-07-08 17:43:00,
2013-07-08 12:47:00,84.0,69.6,29.97,ESE,123,6.0,7.0,62,0.00,,,0.00,Wunderground v.1.15,2013-07-08 17:47:00,
2013-07-08 12:48:00,84.0,69.6,29.97,SSE,158,6.0,7.0,62,0.00,,,0.00,Wunderground v.1.15,2013-07-08 17:48:00,
2013-07-08 12:49:00,84.1,69.2,29.97,SSE,147,6.0,7.0,61,0.00,,,0.00,Wunderground v.1.15,2013-07-08 17:49:00,
2013-07-08 12:50:00,84.1,69.2,29.97,SSW,192,5.0,7.0,61,0.00,,,0.00,Wunderground v.1.15,2013-07-08 17:50:00,
2013-07-08 12:54:00,83.8,68.9,29.97,South,189,6.0,11.0,61,0.00,,,0.00,Wunderground v.1.15,2013-07-08 17:54:00,
2013-07-08 12:55:00,83.8,68.9,29.97,SE,145,6.0,11.0,61,0.00,,,0.00,Wunderground v.1.15,2013-07-08 17:55:00,
2013-07-08 12:57:00,83.8,69.4,29.97,SE,136,6.0,11.0,62,0.00,,,0.00,Wunderground v.1.15,2013-07-08 17:57:00,
2013-07-08 12:59:00,83.8,68.9,29.97,SE,145,7.0,12.0,61,0.00,,,0.00,Wunderground v.1.15,2013-07-08 17:59:00,
2013-07-08 13:00:00,83.8,68.9,29.97,South,171,8.0,12.0,61,0.00,,,0.00,Wunderground v.1.15,2013-07-08 18:00:00,
2013-07-08 13:03:00,83.6,68.2,29.97,SSE,165,7.0,8.0,60,0.00,,,0.00,Wunderground v.1.15,2013-07-08 18:03:00,
2013-07-08 13:05:00,83.6,67.8,29.97,SSE,148,7.0,8.0,59,0.00,,,0.00,Wunderground v.1.15,2013-07-08 18:05:00,
2013-07-08 13:07:00,83.8,67.9,29.97,SSW,193,7.0,8.0,59,0.00,,,0.00,Wunderground v.1.15,2013-07-08 18:07:00,
2013-07-08 13:14:00,84.1,66.7,29.97,SSE,168,7.0,10.0,56,0.00,,,0.00,Wunderground v.1.15,2013-07-08 18:14:00,
2013-07-08 13:16:00,84.3,67.4,29.97,SSW,193,7.0,10.0,57,0.00,,,0.00,Wunderground v.1.15,2013-07-08 18:16:00,
2013-07-08 13:22:00,84.7,67.3,29.97,SSW,209,6.0,6.0,56,0.00,,,0.00,Wunderground v.1.15,2013-07-08 18:22:00,
2013-07-08 13:26:00,84.9,68.0,29.97,SSE,155,5.0,6.0,57,0.00,,,0.00,Wunderground v.1.15,2013-07-08 18:26:00,
2013-07-08 13:27:00,84.9,68.0,29.97,SSE,150,5.0,9.0,57,0.00,,,0.00,Wunderground v.1.15,2013-07-08 18:27:00,
2013-07-08 13:34:00,84.7,67.3,29.97,South,182,5.0,8.0,56,0.00,,,0.00,Wunderground v.1.15,2013-07-08 18:34:00,
2013-07-08 13:35:00,84.7,67.3,29.97,SE,145,6.0,8.0,56,0.00,,,0.00,Wunderground v.1.15,2013-07-08 18:35:00,
2013-07-08 13:39:00,85.1,68.2,29.97,South,189,6.0,13.0,57,0.00,,,0.00,Wunderground v.1.15,2013-07-08 18:39:00,
2013-07-08 13:42:00,85.5,67.5,29.97,SW,232,6.0,13.0,55,0.00,,,0.00,Wunderground v.1.15,2013-07-08 18:42:00,
2013-07-08 13:47:00,85.9,67.9,29.96,SSE,167,6.0,12.0,55,0.00,,,0.00,Wunderground v.1.15,2013-07-08 18:47:00,
2013-07-08 13:49:00,85.9,67.3,29.96,SSE,152,6.0,12.0,54,0.00,,,0.00,Wunderground v.1.15,2013-07-08 18:49:00,
2013-07-08 13:53:00,85.7,67.7,29.96,South,178,7.0,12.0,55,0.00,,,0.00,Wunderground v.1.15,2013-07-08 18:53:00,
2013-07-08 14:00:00,85.5,65.9,29.96,SE,124,10.0,12.0,52,0.00,,,0.00,Wunderground v.1.15,2013-07-08 19:00:00,
2013-07-08 14:02:00,85.7,66.0,29.95,South,176,9.0,9.0,52,0.00,,,0.00,Wunderground v.1.15,2013-07-08 19:02:00,
2013-07-08 14:07:00,85.7,66.0,29.95,South,172,8.0,9.0,52,0.00,,,0.00,Wunderground v.1.15,2013-07-08 19:07:00,
2013-07-08 14:09:00,85.9,66.2,29.95,SSE,154,7.0,9.0,52,0.00,,,0.00,Wunderground v.1.15,2013-07-08 19:09:00,
2013-07-08 14:14:00,86.1,66.4,29.95,SE,131,6.0,12.0,52,0.00,,,0.00,Wunderground v.1.15,2013-07-08 19:14:00,
2013-07-08 14:19:00,85.9,67.3,29.95,SSE,151,6.0,12.0,54,0.00,,,0.00,Wunderground v.1.15,2013-07-08 19:19:00,
2013-07-08 14:20:00,86.1,67.5,29.95,SE,124,6.0,12.0,54,0.00,,,0.00,Wunderground v.1.15,2013-07-08 19:20:00,
2013-07-08 14:22:00,86.1,67.0,29.95,South,176,5.0,5.0,53,0.00,,,0.00,Wunderground v.1.15,2013-07-08 19:22:00,
2013-07-08 14:29:00,86.5,67.3,29.95,SSE,158,4.0,8.0,53,0.00,,,0.00,Wunderground v.1.15,2013-07-08 19:29:00,
2013-07-08 14:30:00,86.5,67.3,29.95,South,176,5.0,8.0,53,0.00,,,0.00,Wunderground v.1.15,2013-07-08 19:30:00,
2013-07-08 14:33:00,86.7,67.0,29.94,SSE,147,6.0,6.0,52,0.00,,,0.00,Wunderground v.1.15,2013-07-08 19:33:00,
2013-07-08 14:37:00,86.7,67.0,29.94,ESE,114,6.0,8.0,52,0.00,,,0.00,Wunderground v.1.15,2013-07-08 19:37:00,
2013-07-08 14:39:00,86.5,66.8,29.94,SSE,154,6.0,8.0,52,0.00,,,0.00,Wunderground v.1.15,2013-07-08 19:39:00,
2013-07-08 14:45:00,86.3,67.7,29.94,SSE,157,6.0,11.0,54,0.00,,,0.00,Wunderground v.1.15,2013-07-08 19:45:00,
2013-07-08 14:49:00,86.5,67.9,29.94,South,184,5.0,11.0,54,0.00,,,0.00,Wunderground v.1.15,2013-07-08 19:49:00,
2013-07-08 14:52:00,86.5,67.9,29.94,SE,136,5.0,6.0,54,0.00,,,0.00,Wunderground v.1.15,2013-07-08 19:52:00,
2013-07-08 14:55:00,86.1,68.0,29.94,SE,128,5.0,10.0,55,0.00,,,0.00,Wunderground v.1.15,2013-07-08 19:55:00,
2013-07-08 15:00:00,86.1,68.0,29.94,SE,136,6.0,10.0,55,0.00,,,0.00,Wunderground v.1.15,2013-07-08 20:00:00,
2013-07-08 15:03:00,86.1,68.0,29.94,ESE,123,6.0,11.0,55,0.00,,,0.00,Wunderground v.1.15,2013-07-08 20:03:00,
2013-07-08 15:04:00,86.1,68.0,29.94,ESE,110,6.0,11.0,55,0.00,,,0.00,Wunderground v.1.15,2013-07-08 20:04:00,
2013-07-08 15:06:00,86.3,68.2,29.94,SSW,199,5.0,11.0,55,0.00,,,0.00,Wunderground v.1.15,2013-07-08 20:06:00,
2013-07-08 15:08:00,86.3,67.7,29.94,SE,130,5.0,11.0,54,0.00,,,0.00,Wunderground v.1.15,2013-07-08 20:08:00,
2013-07-08 15:14:00,85.9,68.4,29.94,SE,138,5.0,7.0,56,0.00,,,0.00,Wunderground v.1.15,2013-07-08 20:14:00,
2013-07-08 15:20:00,86.1,68.6,29.94,SE,138,4.0,7.0,56,0.00,,,0.00,Wunderground v.1.15,2013-07-08 20:20:00,
2013-07-08 15:23:00,85.9,68.4,29.94,ESE,110,4.0,7.0,56,0.00,,,0.00,Wunderground v.1.15,2013-07-08 20:23:00,
2013-07-08 15:25:00,85.9,68.9,29.94,SE,145,5.0,10.0,57,0.00,,,0.00,Wunderground v.1.15,2013-07-08 20:25:00,
2013-07-08 15:26:00,85.9,69.4,29.94,SE,131,4.0,10.0,58,0.00,,,0.00,Wunderground v.1.15,2013-07-08 20:26:00,
2013-07-08 15:29:00,85.7,69.2,29.94,SE,124,5.0,10.0,58,0.00,,,0.00,Wunderground v.1.15,2013-07-08 20:29:00,
2013-07-08 15:32:00,84.9,69.9,29.94,SE,124,7.0,10.0,61,0.00,,,0.00,Wunderground v.1.15,2013-07-08 20:32:00,
2013-07-08 15:33:00,84.7,69.8,29.94,ESE,104,6.0,9.0,61,0.00,,,0.00,Wunderground v.1.15,2013-07-08 20:33:00,
2013-07-08 15:35:00,84.3,69.9,29.94,SE,141,6.0,10.0,62,0.00,,,0.00,Wunderground v.1.15,2013-07-08 20:35:00,
2013-07-08 15:38:00,84.0,70.0,29.94,South,179,7.0,10.0,63,0.00,,,0.00,Wunderground v.1.15,2013-07-08 20:38:00,
2013-07-08 15:40:00,83.8,69.9,29.94,SE,145,6.0,10.0,63,0.00,,,0.00,Wunderground v.1.15,2013-07-08 20:40:00,
2013-07-08 15:43:00,83.6,69.7,29.94,SE,133,7.0,14.0,63,0.00,,,0.00,Wunderground v.1.15,2013-07-08 20:43:00,
2013-07-08 15:44:00,83.4,69.5,29.94,ESE,120,7.0,14.0,63,0.00,,,0.00,Wunderground v.1.15,2013-07-08 20:44:00,
2013-07-08 15:49:00,82.6,69.6,29.94,SSE,154,8.0,14.0,65,0.00,,,0.00,Wunderground v.1.15,2013-07-08 20:49:00,
2013-07-08 15:53:00,82.2,70.1,29.94,ESE,117,7.0,7.0,67,0.00,,,0.00,Wunderground v.1.15,2013-07-08 20:53:00,
2013-07-08 15:54:00,82.0,69.5,29.94,SSE,147,6.0,7.0,66,0.00,,,0.00,Wunderground v.1.15,2013-07-08 20:54:00,
2013-07-08 15:58:00,81.8,68.9,29.94,SE,144,6.0,7.0,65,0.00,,,0.00,Wunderground v.1.15,2013-07-08 20:58:00,
2013-07-08 15:59:00,81.8,68.9,29.94,East,97,5.0,7.0,65,0.00,,,0.00,Wunderground v.1.15,2013-07-08 20:59:00,
2013-07-08 16:02:00,81.8,68.9,29.94,ESE,116,5.0,6.0,65,0.00,,,0.00,Wunderground v.1.15,2013-07-08 21:02:00,
2013-07-08 16:04:00,82.0,69.1,29.94,East,92,4.0,6.0,65,0.00,,,0.00,Wunderground v.1.15,2013-07-08 21:04:00,
2013-07-08 16:05:00,82.0,69.1,29.94,SE,136,4.0,8.0,65,0.00,,,0.00,Wunderground v.1.15,2013-07-08 21:05:00,
2013-07-08 16:08:00,82.0,69.1,29.94,ESE,120,3.0,8.0,65,0.00,,,0.00,Wunderground v.1.15,2013-07-08 21:08:00,
2013-07-08 16:09:00,82.0,69.1,29.94,SE,138,4.0,8.0,65,0.00,,,0.00,Wunderground v.1.15,2013-07-08 21:09:00,
2013-07-08 16:13:00,81.8,69.3,29.94,ESE,109,3.0,3.0,66,0.00,,,0.00,Wunderground v.1.15,2013-07-08 21:13:00,
2013-07-08 16:14:00,81.8,69.3,29.94,ESE,109,3.0,3.0,66,0.00,,,0.00,Wunderground v.1.15,2013-07-08 21:14:00,
2013-07-08 16:17:00,81.8,69.3,29.93,East,82,2.0,3.0,66,0.00,,,0.00,Wunderground v.1.15,2013-07-08 21:17:00,
2013-07-08 16:20:00,82.0,70.0,29.93,East,82,1.0,3.0,67,0.00,,,0.00,Wunderground v.1.15,2013-07-08 21:20:00,
2013-07-08 16:24:00,81.8,68.9,29.93,ESE,110,1.0,3.0,65,0.00,,,0.00,Wunderground v.1.15,2013-07-08 21:24:00,
2013-07-08 16:25:00,82.0,69.1,29.93,ESE,110,1.0,3.0,65,0.00,,,0.00,Wunderground v.1.15,2013-07-08 21:25:00,
2013-07-08 16:28:00,82.0,69.5,29.93,ESE,110,1.0,3.0,66,0.00,,,0.00,Wunderground v.1.15,2013-07-08 21:28:00,
2013-07-08 16:30:00,82.0,69.1,29.93,ESE,112,1.0,3.0,65,0.00,,,0.00,Wunderground v.1.15,2013-07-08 21:30:00,
2013-07-08 16:35:00,82.2,68.3,29.93,ESE,113,1.0,6.0,63,0.00,,,0.00,Wunderground v.1.15,2013-07-08 21:35:00,
2013-07-08 16:36:00,82.4,68.5,29.93,ESE,112,1.0,6.0,63,0.00,,,0.00,Wunderground v.1.15,2013-07-08 21:36:00,
2013-07-08 16:40:00,82.4,69.0,29.93,ESE,116,1.0,6.0,64,0.00,,,0.00,Wunderground v.1.15,2013-07-08 21:40:00,
2013-07-08 16:42:00,82.4,69.0,29.93,ESE,116,1.0,1.0,64,0.00,,,0.00,Wunderground v.1.15,2013-07-08 21:42:00,
2013-07-08 16:45:00,82.4,69.4,29.93,ESE,116,1.0,2.0,65,0.00,,,0.00,Wunderground v.1.15,2013-07-08 21:45:00,
2013-07-08 16:47:00,82.2,69.3,29.93,ESE,116,1.0,2.0,65,0.00,,,0.00,Wunderground v.1.15,2013-07-08 21:47:00,
2013-07-08 16:52:00,82.4,69.4,29.93,ESE,116,1.0,2.0,65,0.00,,,0.00,Wunderground v.1.15,2013-07-08 21:52:00,
2013-07-08 16:55:00,82.2,69.3,29.93,ESE,112,1.0,2.0,65,0.00,,,0.00,Wunderground v.1.15,2013-07-08 21:55:00,
2013-07-08 16:56:00,82.2,69.3,29.93,ESE,112,1.0,2.0,65,0.00,,,0.00,Wunderground v.1.15,2013-07-08 21:56:00,
2013-07-08 17:02:00,82.2,69.3,29.93,East,99,1.0,1.0,65,0.00,,,0.00,Wunderground v.1.15,2013-07-08 22:02:00,
2013-07-08 17:09:00,82.2,69.3,29.93,East,99,1.0,3.0,65,0.00,,,0.00,Wunderground v.1.15,2013-07-08 22:09:00,
2013-07-08 17:12:00,82.4,69.4,29.93,East,99,1.0,1.0,65,0.00,,,0.00,Wunderground v.1.15,2013-07-08 22:12:00,
2013-07-08 17:14:00,82.4,69.4,29.93,East,100,1.0,1.0,65,0.00,,,0.00,Wunderground v.1.15,2013-07-08 22:14:00,
2013-07-08 17:15:00,82.4,69.4,29.93,ESE,123,1.0,4.0,65,0.00,,,0.00,Wunderground v.1.15,2013-07-08 22:15:00,
2013-07-08 17:19:00,82.2,68.8,29.92,ESE,112,2.0,4.0,64,0.00,,,0.00,Wunderground v.1.15,2013-07-08 22:19:00,
2013-07-08 17:21:00,82.2,68.8,29.92,East,96,2.0,2.0,64,0.00,,,0.00,Wunderground v.1.15,2013-07-08 22:21:00,
2013-07-08 17:23:00,82.2,68.3,29.92,ESE,106,2.0,6.0,63,0.00,,,0.00,Wunderground v.1.15,2013-07-08 22:23:00,
2013-07-08 17:29:00,82.2,68.3,29.92,East,85,2.0,6.0,63,0.00,,,0.00,Wunderground v.1.15,2013-07-08 22:29:00,
2013-07-08 17:34:00,82.4,68.5,29.92,East,83,2.0,4.0,63,0.00,,,0.00,Wunderground v.1.15,2013-07-08 22:34:00,
2013-07-08 17:37:00,82.4,68.5,29.92,East,82,2.0,4.0,63,0.00,,,0.00,Wunderground v.1.15,2013-07-08 22:37:00,
2013-07-08 17:38:00,82.4,68.5,29.92,East,100,2.0,6.0,63,0.00,,,0.00,Wunderground v.1.15,2013-07-08 22:38:00,
2013-07-08 17:39:00,82.4,68.1,29.92,East,100,2.0,6.0,62,0.00,,,0.00,Wunderground v.1.15,2013-07-08 22:39:00,
2013-07-08 17:43:00,82.6,68.3,29.92,NE,52,2.0,3.0,62,0.00,,,0.00,Wunderground v.1.15,2013-07-08 22:43:00,
2013-07-08 17:48:00,82.6,68.3,29.92,East,92,2.0,5.0,62,0.00,,,0.00,Wunderground v.1.15,2013-07-08 22:48:00,
2013-07-08 17:51:00,82.6,67.8,29.92,ENE,75,2.0,5.0,61,0.00,,,0.00,Wunderground v.1.15,2013-07-08 22:51:00,
2013-07-08 17:54:00,82.4,67.6,29.92,East,86,2.0,5.0,61,0.00,,,0.00,Wunderground v.1.15,2013-07-08 22:54:00,
2013-07-08 17:58:00,82.4,68.1,29.92,ENE,75,3.0,5.0,62,0.00,,,0.00,Wunderground v.1.15,2013-07-08 22:58:00,
2013-07-08 18:05:00,82.4,68.1,29.92,East,86,2.0,6.0,62,0.00,,,0.00,Wunderground v.1.15,2013-07-08 23:05:00,
2013-07-08 18:08:00,82.4,68.5,29.92,NE,47,2.0,6.0,63,0.00,,,0.00,Wunderground v.1.15,2013-07-08 23:08:00,
2013-07-08 18:14:00,82.6,68.7,29.92,NE,52,2.0,3.0,63,0.00,,,0.00,Wunderground v.1.15,2013-07-08 23:14:00,
2013-07-08 18:15:00,82.6,68.7,29.92,NE,52,2.0,3.0,63,0.00,,,0.00,Wunderground v.1.15,2013-07-08 23:15:00,
2013-07-08 18:20:00,82.6,68.7,29.91,ENE,62,2.0,2.0,63,0.00,,,0.00,Wunderground v.1.15,2013-07-08 23:20:00,
2013-07-08 18:21:00,82.6,68.7,29.91,NE,55,2.0,2.0,63,0.00,,,0.00,Wunderground v.1.15,2013-07-08 23:21:00,
2013-07-08 18:27:00,82.6,69.2,29.91,NNE,20,3.0,6.0,64,0.00,,,0.00,Wunderground v.1.15,2013-07-08 23:27:00,
2013-07-08 18:32:00,82.8,68.9,29.91,ENE,59,2.0,2.0,63,0.00,,,0.00,Wunderground v.1.15,2013-07-08 23:32:00,
2013-07-08 18:34:00,82.8,69.4,29.91,NE,48,2.0,2.0,64,0.00,,,0.00,Wunderground v.1.15,2013-07-08 23:34:00,
2013-07-08 18:39:00,83.0,69.6,29.91,NE,49,2.0,5.0,64,0.00,,,0.00,Wunderground v.1.15,2013-07-08 23:39:00,
2013-07-08 18:43:00,83.0,69.6,29.91,NE,45,2.0,6.0,64,0.00,,,0.00,Wunderground v.1.15,2013-07-08 23:43:00,
2013-07-08 18:44:00,83.0,69.6,29.91,NNE,27,2.0,6.0,64,0.00,,,0.00,Wunderground v.1.15,2013-07-08 23:44:00,
2013-07-08 18:45:00,83.0,69.6,29.91,NE,38,3.0,6.0,64,0.00,,,0.00,Wunderground v.1.15,2013-07-08 23:45:00,
2013-07-08 18:51:00,83.0,69.6,29.91,ENE,59,3.0,3.0,64,0.00,,,0.00,Wunderground v.1.15,2013-07-08 23:51:00,
2013-07-08 18:52:00,83.0,69.6,29.91,ENE,59,3.0,3.0,64,0.00,,,0.00,Wunderground v.1.15,2013-07-08 23:52:00,
2013-07-08 18:56:00,83.2,69.8,29.91,NE,44,2.0,3.0,64,0.00,,,0.00,Wunderground v.1.15,2013-07-08 23:56:00,
2013-07-08 18:57:00,83.2,69.8,29.91,NE,44,2.0,3.0,64,0.00,,,0.00,Wunderground v.1.15,2013-07-08 23:57:00,
2013-07-08 18:58:00,83.2,69.8,29.91,NE,44,2.0,5.0,64,0.00,,,0.00,Wunderground v.1.15,2013-07-08 23:58:00,
2013-07-08 19:01:00,83.2,69.8,29.91,NE,37,2.0,6.0,64,0.00,,,0.00,Wunderground v.1.15,2013-07-09 00:01:00,
2013-07-08 19:04:00,83.2,69.8,29.90,NE,37,2.0,6.0,64,0.00,,,0.00,Wunderground v.1.15,2013-07-09 00:04:00,
2013-07-08 19:07:00,83.2,70.2,29.90,NE,34,2.0,6.0,65,0.00,,,0.00,Wunderground v.1.15,2013-07-09 00:07:00,
2013-07-08 19:09:00,83.4,69.9,29.90,ENE,61,2.0,6.0,64,0.00,,,0.00,Wunderground v.1.15,2013-07-09 00:09:00,
2013-07-08 19:11:00,83.4,69.9,29.90,ENE,59,2.0,2.0,64,0.00,,,0.00,Wunderground v.1.15,2013-07-09 00:11:00,
2013-07-08 19:14:00,83.4,69.9,29.90,NE,55,2.0,6.0,64,0.00,,,0.00,Wunderground v.1.15,2013-07-09 00:14:00,
2013-07-08 19:17:00,83.4,69.9,29.91,East,82,2.0,6.0,64,0.00,,,0.00,Wunderground v.1.15,2013-07-09 00:17:00,
2013-07-08 19:22:00,83.4,69.9,29.91,East,82,1.0,1.0,64,0.00,,,0.00,Wunderground v.1.15,2013-07-09 00:22:00,
2013-07-08 19:27:00,83.4,69.9,29.91,East,86,1.0,3.0,64,0.00,,,0.00,Wunderground v.1.15,2013-07-09 00:27:00,
2013-07-08 19:28:00,83.4,69.9,29.91,East,86,1.0,3.0,64,0.00,,,0.00,Wunderground v.1.15,2013-07-09 00:28:00,
2013-07-08 19:33:00,83.2,69.8,29.91,East,88,1.0,3.0,64,0.00,,,0.00,Wunderground v.1.15,2013-07-09 00:33:00,
2013-07-08 19:35:00,83.2,69.8,29.91,East,88,1.0,3.0,64,0.00,,,0.00,Wunderground v.1.15,2013-07-09 00:35:00,
2013-07-08 19:41:00,83.2,70.2,29.91,East,79,1.0,1.0,65,0.00,,,0.00,Wunderground v.1.15,2013-07-09 00:41:00,
2013-07-08 19:42:00,83.2,70.2,29.91,East,79,1.0,1.0,65,0.00,,,0.00,Wunderground v.1.15,2013-07-09 00:42:00,
2013-07-08 19:45:00,83.2,70.2,29.91,East,79,1.0,1.0,65,0.00,,,0.00,Wunderground v.1.15,2013-07-09 00:45:00,
2013-07-08 19:47:00,83.0,70.0,29.91,East,83,1.0,1.0,65,0.00,,,0.00,Wunderground v.1.15,2013-07-09 00:47:00,
2013-07-08 19:51:00,83.0,70.0,29.91,East,83,1.0,1.0,65,0.00,,,0.00,Wunderground v.1.15,2013-07-09 00:51:00,
2013-07-08 19:54:00,83.0,70.0,29.91,SSE,152,1.0,10.0,65,0.00,,,0.00,Wunderground v.1.15,2013-07-09 00:54:00,
2013-07-08 19:55:00,83.0,70.0,29.91,SE,141,2.0,13.0,65,0.00,,,0.00,Wunderground v.1.15,2013-07-09 00:55:00,
2013-07-08 20:01:00,81.4,70.7,29.93,SE,133,6.0,6.0,70,1.59,,,0.05,Wunderground v.1.15,2013-07-09 01:01:00,
2013-07-08 20:02:00,81.2,70.9,29.93,SE,133,6.0,6.0,71,0.86,,,0.06,Wunderground v.1.15,2013-07-09 01:02:00,
2013-07-08 20:04:00,80.7,71.2,29.93,SE,133,6.0,6.0,73,0.21,,,0.06,Wunderground v.1.15,2013-07-09 01:04:00,
2013-07-08 20:07:00,80.1,71.8,29.93,SE,133,3.0,6.0,76,0.11,,,0.06,Wunderground v.1.15,2013-07-09 01:07:00,
2013-07-08 20:09:00,79.6,71.8,29.93,SE,133,1.0,6.0,77,0.08,,,0.06,Wunderground v.1.15,2013-07-09 01:09:00,
2013-07-08 20:12:00,79.2,71.7,29.93,SW,215,0.0,1.0,78,0.06,,,0.06,Wunderground v.1.15,2013-07-09 01:12:00,
2013-07-08 20:15:00,78.6,71.5,29.93,SW,215,0.0,3.0,79,0.04,,,0.06,Wunderground v.1.15,2013-07-09 01:15:00,
2013-07-08 20:21:00,77.9,71.2,29.93,SW,217,2.0,2.0,80,0.00,,,0.06,Wunderground v.1.15,2013-07-09 01:21:00,
2013-07-08 20:22:00,77.7,71.4,29.93,SSW,210,2.0,2.0,81,0.00,,,0.06,Wunderground v.1.15,2013-07-09 01:22:00,
2013-07-08 20:25:00,77.6,71.7,29.93,South,181,2.0,2.0,82,0.00,,,0.06,Wunderground v.1.15,2013-07-09 01:25:00,
2013-07-08 20:28:00,77.4,71.5,29.93,South,181,2.0,2.0,82,0.00,,,0.06,Wunderground v.1.15,2013-07-09 01:28:00,
2013-07-08 20:31:00,77.4,71.5,29.93,SE,124,1.0,1.0,82,0.00,,,0.06,Wunderground v.1.15,2013-07-09 01:31:00,
2013-07-08 20:34:00,77.2,71.3,29.94,SSE,162,1.0,2.0,82,0.00,,,0.06,Wunderground v.1.15,2013-07-09 01:34:00,
2013-07-08 20:37:00,77.2,70.9,29.94,South,172,3.0,7.0,81,0.00,,,0.06,Wunderground v.1.15,2013-07-09 01:37:00,
2013-07-08 20:38:00,77.4,71.1,29.94,SSE,155,3.0,8.0,81,0.00,,,0.06,Wunderground v.1.15,2013-07-09 01:38:00,
2013-07-08 20:41:00,77.7,71.0,29.94,ESE,109,5.0,6.0,80,0.00,,,0.06,Wunderground v.1.15,2013-07-09 01:41:00,
2013-07-08 20:46:00,77.9,71.2,29.94,ESE,112,6.0,7.0,80,0.00,,,0.06,Wunderground v.1.15,2013-07-09 01:46:00,
2013-07-08 20:49:00,77.9,71.2,29.94,SE,124,5.0,7.0,80,0.00,,,0.06,Wunderground v.1.15,2013-07-09 01:49:00,
2013-07-08 20:53:00,77.6,70.9,29.94,ESE,119,5.0,8.0,80,0.00,,,0.06,Wunderground v.1.15,2013-07-09 01:53:00,
2013-07-08 20:54:00,77.6,70.9,29.94,ESE,109,6.0,8.0,80,0.00,,,0.06,Wunderground v.1.15,2013-07-09 01:54:00,
2013-07-08 20:57:00,77.2,71.3,29.94,ESE,110,5.0,8.0,82,0.00,,,0.06,Wunderground v.1.15,2013-07-09 01:57:00,
2013-07-08 21:04:00,76.7,71.5,29.94,ESE,110,4.0,5.0,84,0.00,,,0.06,Wunderground v.1.15,2013-07-09 02:04:00,
2013-07-08 21:05:00,76.7,71.5,29.94,ESE,109,4.0,5.0,84,0.00,,,0.06,Wunderground v.1.15,2013-07-09 02:05:00,
2013-07-08 21:13:00,76.3,71.8,29.94,East,85,3.0,3.0,86,0.00,,,0.06,Wunderground v.1.15,2013-07-09 02:13:00,
2013-07-08 21:15:00,76.3,71.8,29.94,ESE,102,2.0,3.0,86,0.00,,,0.06,Wunderground v.1.15,2013-07-09 02:15:00,
2013-07-08 21:19:00,76.1,71.6,29.95,East,86,2.0,4.0,86,0.00,,,0.06,Wunderground v.1.15,2013-07-09 02:19:00,
2013-07-08 21:24:00,76.1,71.9,29.95,East,86,1.0,2.0,87,0.00,,,0.07,Wunderground v.1.15,2013-07-09 02:24:00,
2013-07-08 21:25:00,76.1,71.9,29.95,East,93,1.0,2.0,87,0.00,,,0.07,Wunderground v.1.15,2013-07-09 02:25:00,
2013-07-08 21:28:00,76.0,71.8,29.95,East,92,1.0,2.0,87,0.00,,,0.07,Wunderground v.1.15,2013-07-09 02:28:00,
2013-07-08 21:29:00,76.0,71.8,29.95,East,90,1.0,2.0,87,0.00,,,0.07,Wunderground v.1.15,2013-07-09 02:29:00,
2013-07-08 21:36:00,75.8,72.0,29.96,ENE,75,1.0,3.0,88,0.00,,,0.07,Wunderground v.1.15,2013-07-09 02:36:00,
2013-07-08 21:41:00,75.8,72.0,29.96,NE,56,1.0,2.0,88,0.00,,,0.07,Wunderground v.1.15,2013-07-09 02:41:00,
2013-07-08 21:42:00,75.6,71.8,29.96,NE,56,1.0,2.0,88,0.00,,,0.07,Wunderground v.1.15,2013-07-09 02:42:00,
2013-07-08 21:44:00,75.6,72.1,29.96,NE,56,1.0,2.0,89,0.00,,,0.07,Wunderground v.1.15,2013-07-09 02:44:00,
2013-07-08 21:46:00,75.8,72.3,29.97,NE,56,1.0,2.0,89,0.00,,,0.07,Wunderground v.1.15,2013-07-09 02:46:00,
2013-07-08 21:47:00,75.8,72.3,29.97,NE,56,1.0,2.0,89,0.00,,,0.07,Wunderground v.1.15,2013-07-09 02:47:00,
2013-07-08 21:52:00,75.8,72.3,29.97,ENE,58,0.0,0.0,89,0.00,,,0.07,Wunderground v.1.15,2013-07-09 02:52:00,
2013-07-08 21:53:00,75.8,72.3,29.97,ENE,58,0.0,0.0,89,0.00,,,0.07,Wunderground v.1.15,2013-07-09 02:53:00,
2013-07-08 21:59:00,75.6,72.1,29.97,ENE,58,1.0,3.0,89,0.00,,,0.07,Wunderground v.1.15,2013-07-09 02:59:00,
2013-07-08 22:02:00,75.6,72.1,29.97,ENE,58,0.0,0.0,89,0.00,,,0.07,Wunderground v.1.15,2013-07-09 03:02:00,
2013-07-08 22:07:00,75.6,72.1,29.97,ENE,58,0.0,0.0,89,0.00,,,0.07,Wunderground v.1.15,2013-07-09 03:07:00,
2013-07-08 22:08:00,75.6,72.1,29.97,ENE,58,0.0,2.0,89,0.00,,,0.07,Wunderground v.1.15,2013-07-09 03:08:00,
2013-07-08 22:12:00,75.6,72.1,29.97,ENE,58,0.0,0.0,89,0.00,,,0.07,Wunderground v.1.15,2013-07-09 03:12:00,
2013-07-08 22:13:00,75.6,72.1,29.97,ENE,58,0.0,0.0,89,0.00,,,0.07,Wunderground v.1.15,2013-07-09 03:13:00,
2013-07-08 22:14:00,75.8,72.3,29.97,ENE,58,1.0,2.0,89,0.00,,,0.07,Wunderground v.1.15,2013-07-09 03:14:00,
2013-07-08 22:19:00,75.8,72.7,29.97,ENE,58,0.0,2.0,90,0.00,,,0.07,Wunderground v.1.15,2013-07-09 03:19:00,
2013-07-08 22:22:00,75.8,72.7,29.97,ENE,58,0.0,2.0,90,0.00,,,0.07,Wunderground v.1.15,2013-07-09 03:22:00,
2013-07-08 22:25:00,75.8,72.7,29.97,ENE,58,0.0,2.0,90,0.00,,,0.07,Wunderground v.1.15,2013-07-09 03:25:00,
2013-07-08 22:26:00,75.8,72.7,29.97,ENE,58,0.0,2.0,90,0.00,,,0.07,Wunderground v.1.15,2013-07-09 03:26:00,
2013-07-08 22:28:00,75.8,72.7,29.97,ENE,58,0.0,2.0,90,0.00,,,0.07,Wunderground v.1.15,2013-07-09 03:28:00,
2013-07-08 22:33:00,75.8,72.7,29.99,ENE,58,0.0,0.0,90,0.00,,,0.07,Wunderground v.1.15,2013-07-09 03:33:00,
2013-07-08 22:34:00,75.8,72.7,29.99,ENE,58,0.0,0.0,90,0.00,,,0.07,Wunderground v.1.15,2013-07-09 03:34:00,
2013-07-08 22:38:00,75.8,72.7,29.99,ENE,58,0.0,0.0,90,0.00,,,0.07,Wunderground v.1.15,2013-07-09 03:38:00,
2013-07-08 22:41:00,75.8,72.7,29.99,ENE,58,0.0,1.0,90,0.00,,,0.07,Wunderground v.1.15,2013-07-09 03:41:00,
2013-07-08 22:44:00,75.8,72.7,29.99,ENE,58,0.0,2.0,90,0.00,,,0.07,Wunderground v.1.15,2013-07-09 03:44:00,
2013-07-08 22:47:00,76.0,72.9,29.99,ENE,58,0.0,2.0,90,0.00,,,0.07,Wunderground v.1.15,2013-07-09 03:47:00,
2013-07-08 22:49:00,76.0,72.5,29.99,ENE,58,0.0,2.0,89,0.00,,,0.07,Wunderground v.1.15,2013-07-09 03:49:00,
2013-07-08 22:53:00,76.1,72.6,29.99,ENE,58,0.0,0.0,89,0.00,,,0.07,Wunderground v.1.15,2013-07-09 03:53:00,
2013-07-08 22:54:00,76.1,72.6,29.99,ENE,58,1.0,3.0,89,0.00,,,0.07,Wunderground v.1.15,2013-07-09 03:54:00,
2013-07-08 22:58:00,76.3,72.8,29.99,East,80,1.0,3.0,89,0.00,,,0.07,Wunderground v.1.15,2013-07-09 03:58:00,
2013-07-08 23:02:00,76.5,73.0,29.99,ESE,107,2.0,2.0,89,0.00,,,0.07,Wunderground v.1.15,2013-07-09 04:02:00,
2013-07-08 23:03:00,76.5,72.7,29.99,SE,138,2.0,3.0,88,0.00,,,0.07,Wunderground v.1.15,2013-07-09 04:03:00,
2013-07-08 23:04:00,76.5,72.7,29.99,SE,138,2.0,3.0,88,0.00,,,0.07,Wunderground v.1.15,2013-07-09 04:04:00,
2013-07-08 23:05:00,76.5,72.7,29.99,SE,138,2.0,3.0,88,0.00,,,0.07,Wunderground v.1.15,2013-07-09 04:05:00,
2013-07-08 23:09:00,76.7,72.9,29.99,SE,138,2.0,3.0,88,0.00,,,0.07,Wunderground v.1.15,2013-07-09 04:09:00,
2013-07-08 23:11:00,76.7,72.5,29.99,SE,138,1.0,3.0,87,0.00,,,0.07,Wunderground v.1.15,2013-07-09 04:11:00,
2013-07-08 23:12:00,76.7,72.5,29.99,SSE,157,2.0,3.0,87,0.00,,,0.07,Wunderground v.1.15,2013-07-09 04:12:00,
2013-07-08 23:15:00,76.8,72.6,29.99,SE,138,1.0,3.0,87,0.00,,,0.07,Wunderground v.1.15,2013-07-09 04:15:00,
2013-07-08 23:16:00,76.8,72.6,29.99,SE,138,2.0,3.0,87,0.00,,,0.07,Wunderground v.1.15,2013-07-09 04:16:00,
2013-07-08 23:17:00,76.8,72.6,29.99,SE,143,2.0,3.0,87,0.00,,,0.07,Wunderground v.1.15,2013-07-09 04:17:00,
2013-07-08 23:19:00,76.8,72.3,29.99,SE,138,2.0,3.0,86,0.00,,,0.07,Wunderground v.1.15,2013-07-09 04:19:00,
2013-07-08 23:21:00,77.0,72.5,29.99,SE,138,2.0,3.0,86,0.00,,,0.07,Wunderground v.1.15,2013-07-09 04:21:00,
2013-07-08 23:22:00,77.0,72.5,29.99,SE,140,2.0,3.0,86,0.00,,,0.07,Wunderground v.1.15,2013-07-09 04:22:00,
2013-07-08 23:25:00,77.0,72.5,29.99,SSE,151,2.0,7.0,86,0.00,,,0.07,Wunderground v.1.15,2013-07-09 04:25:00,
2013-07-08 23:27:00,77.2,72.3,29.99,ESE,116,3.0,7.0,85,0.00,,,0.07,Wunderground v.1.15,2013-07-09 04:27:00,
2013-07-08 23:31:00,77.6,72.4,29.99,SSE,151,3.0,8.0,84,0.00,,,0.07,Wunderground v.1.15,2013-07-09 04:31:00,
2013-07-08 23:32:00,77.7,72.5,30.00,SSE,162,4.0,11.0,84,0.00,,,0.07,Wunderground v.1.15,2013-07-09 04:32:00,
2013-07-08 23:34:00,77.7,72.1,30.00,SSE,152,4.0,11.0,83,0.00,,,0.07,Wunderground v.1.15,2013-07-09 04:34:00,
2013-07-08 23:38:00,78.1,72.2,30.00,SE,145,5.0,11.0,82,0.00,,,0.07,Wunderground v.1.15,2013-07-09 04:38:00,
2013-07-08 23:39:00,78.1,72.2,30.00,SE,145,5.0,11.0,82,0.00,,,0.07,Wunderground v.1.15,2013-07-09 04:39:00,
2013-07-08 23:41:00,78.1,72.2,30.00,SSE,147,5.0,11.0,82,0.00,,,0.07,Wunderground v.1.15,2013-07-09 04:41:00,
2013-07-08 23:42:00,78.1,72.2,30.00,South,179,3.0,4.0,82,0.00,,,0.07,Wunderground v.1.15,2013-07-09 04:42:00,
2013-07-08 23:44:00,78.1,72.2,30.00,South,179,3.0,4.0,82,0.00,,,0.07,Wunderground v.1.15,2013-07-09 04:44:00,
2013-07-08 23:46:00,78.1,72.2,30.00,South,179,2.0,4.0,82,0.00,,,0.07,Wunderground v.1.15,2013-07-09 04:46:00,
2013-07-08 23:47:00,78.1,72.2,30.00,SSE,147,2.0,4.0,82,0.00,,,0.07,Wunderground v.1.15,2013-07-09 04:47:00,
2013-07-08 23:48:00,78.1,72.2,30.00,SE,127,2.0,6.0,82,0.00,,,0.07,Wunderground v.1.15,2013-07-09 04:48:00,
2013-07-08 23:49:00,78.1,72.2,30.00,SE,128,2.0,6.0,82,0.00,,,0.07,Wunderground v.1.15,2013-07-09 04:49:00,
2013-07-08 23:52:00,78.1,72.2,30.00,SSE,161,2.0,4.0,82,0.00,,,0.07,Wunderground v.1.15,2013-07-09 04:52:00,
2013-07-08 23:56:00,77.9,72.0,30.00,SSE,165,3.0,5.0,82,0.00,,,0.07,Wunderground v.1.15,2013-07-09 04:56:00,
2013-07-08 23:57:00,77.9,72.0,30.00,SSE,150,2.0,5.0,82,0.00,,,0.07,Wunderground v.1.15,2013-07-09 04:57:00,
2013-07-08 23:59:00,77.9,72.0,30.00,SE,140,3.0,6.0,82,0.00,,,0.07,Wunderground v.1.15,2013-07-09 04:59:00,